Wetterdaten: Sonntag, 30.01.2022
Datum Zeit Temp. Aussen Temp. o. S. Temp +5cm Feuchte Auss Luftdruck Regen Sonnenschein Regendauer Solar Windben Empfang
30.01.2022 00:00 7,4 C 6,7 C 3,9 C 85 % 1026,0 hPa 0,0 l/m 0 min 0 min 0 W/m 12,9 km/h (3 Bft) 97,87 %
30.01.2022 00:02 7,4 C 6,7 C 3,9 C 85 % 1026,0 hPa 0,0 l/m 0 min 0 min 0 W/m 16,1 km/h (3 Bft) 100,00 %
30.01.2022 00:04 7,4 C 6,7 C 3,9 C 85 % 1025,9 hPa 0,0 l/m 0 min 0 min 0 W/m 12,9 km/h (3 Bft) 100,00 %
30.01.2022 00:08 7,4 C 6,7 C 3,9 C 85 % 1026,0 hPa 0,0 l/m 0 min 0 min 0 W/m 16,1 km/h (3 Bft) 98,94 %
30.01.2022 00:10 7,4 C 6,7 C 3,9 C 85 % 1026,0 hPa 0,0 l/m 0 min 0 min 0 W/m 16,1 km/h (3 Bft) 100,00 %
30.01.2022 00:12 7,4 C 6,7 C 3,9 C 85 % 1026,0 hPa 0,0 l/m 0 min 0 min 0 W/m 22,5 km/h (4 Bft) 95,74 %
30.01.2022 00:14 7,4 C 6,7 C 3,3 C 85 % 1026,1 hPa 0,0 l/m 0 min 0 min 0 W/m 25,7 km/h (4 Bft) 100,00 %
30.01.2022 00:16 7,4 C 6,7 C 3,9 C 85 % 1026,0 hPa 0,0 l/m 0 min 0 min 0 W/m 35,4 km/h (5 Bft) 100,00 %
30.01.2022 00:18 7,4 C 6,7 C 3,3 C 85 % 1026,0 hPa 0,0 l/m 0 min 0 min 0 W/m 22,5 km/h (4 Bft) 97,83 %
30.01.2022 00:20 7,4 C 6,7 C 3,3 C 85 % 1026,1 hPa 0,0 l/m 0 min 0 min 0 W/m 29,0 km/h (5 Bft) 97,87 %
30.01.2022 00:22 7,3 C 6,7 C 3,3 C 84 % 1026,2 hPa 0,0 l/m 0 min 0 min 0 W/m 16,1 km/h (3 Bft) 100,00 %
30.01.2022 00:24 7,3 C 6,7 C 3,3 C 85 % 1026,2 hPa 0,0 l/m 0 min 0 min 0 W/m 22,5 km/h (4 Bft) 97,87 %
30.01.2022 00:26 7,3 C 6,7 C 3,3 C 85 % 1026,2 hPa 0,0 l/m 0 min 0 min 0 W/m 12,9 km/h (3 Bft) 100,00 %
30.01.2022 00:28 7,3 C 6,7 C 3,3 C 85 % 1026,3 hPa 0,0 l/m 0 min 0 min 0 W/m 16,1 km/h (3 Bft) 100,00 %
30.01.2022 00:30 7,3 C 6,7 C 3,3 C 85 % 1026,3 hPa 0,0 l/m 0 min 0 min 0 W/m 16,1 km/h (3 Bft) 97,87 %
30.01.2022 00:32 7,2 C 6,1 C 3,3 C 85 % 1026,3 hPa 0,0 l/m 0 min 0 min 0 W/m 19,3 km/h (3 Bft) 100,00 %
30.01.2022 00:34 7,2 C 6,1 C 3,3 C 85 % 1026,3 hPa 0,0 l/m 0 min 0 min 0 W/m 12,9 km/h (3 Bft) 100,00 %
30.01.2022 00:36 7,2 C 6,1 C 3,3 C 85 % 1026,3 hPa 0,0 l/m 0 min 0 min 0 W/m 19,3 km/h (3 Bft) 100,00 %
30.01.2022 00:38 7,1 C 6,1 C 3,3 C 84 % 1026,3 hPa 0,0 l/m 0 min 0 min 0 W/m 19,3 km/h (3 Bft) 100,00 %
30.01.2022 00:40 7,1 C 6,1 C 3,3 C 84 % 1026,3 hPa 0,0 l/m 0 min 0 min 0 W/m 19,3 km/h (3 Bft) 97,87 %
30.01.2022 00:42 7,1 C 6,1 C 3,3 C 84 % 1026,3 hPa 0,0 l/m 0 min 0 min 0 W/m 19,3 km/h (3 Bft) 100,00 %
30.01.2022 00:44 7,1 C 6,1 C 3,3 C 84 % 1026,2 hPa 0,0 l/m 0 min 0 min 0 W/m 25,7 km/h (4 Bft) 97,87 %
30.01.2022 00:46 7,1 C 6,1 C 3,3 C 84 % 1026,1 hPa 0,0 l/m 0 min 0 min 0 W/m 19,3 km/h (3 Bft) 97,87 %
30.01.2022 00:48 7,0 C 6,1 C 3,3 C 84 % 1026,1 hPa 0,0 l/m 0 min 0 min 0 W/m 19,3 km/h (3 Bft) 95,74 %
30.01.2022 00:50 6,9 C 6,1 C 3,3 C 85 % 1026,1 hPa 0,0 l/m 0 min 0 min 0 W/m 12,9 km/h (3 Bft) 95,74 %
30.01.2022 00:52 6,9 C 6,1 C 3,3 C 85 % 1026,3 hPa 0,0 l/m 0 min 0 min 0 W/m 19,3 km/h (3 Bft) 97,87 %
30.01.2022 00:54 6,9 C 6,1 C 3,3 C 85 % 1026,2 hPa 0,0 l/m 0 min 0 min 0 W/m 16,1 km/h (3 Bft) 97,83 %
30.01.2022 00:56 6,8 C 6,1 C 2,8 C 85 % 1026,3 hPa 0,0 l/m 0 min 0 min 0 W/m 25,7 km/h (4 Bft) 97,87 %
30.01.2022 00:58 6,8 C 6,1 C 2,8 C 85 % 1026,3 hPa 0,0 l/m 0 min 0 min 0 W/m 25,7 km/h (4 Bft) 95,74 %
30.01.2022 01:00 6,8 C 6,1 C 2,8 C 85 % 1026,4 hPa 0,0 l/m 0 min 0 min 0 W/m 16,1 km/h (3 Bft) 91,49 %
30.01.2022 01:02 6,8 C 6,1 C 2,8 C 85 % 1026,4 hPa 0,0 l/m 0 min 0 min 0 W/m 22,5 km/h (4 Bft) 93,62 %
30.01.2022 01:04 6,7 C 6,1 C 2,8 C 85 % 1026,4 hPa 0,0 l/m 0 min 0 min 0 W/m 16,1 km/h (3 Bft) 91,49 %
30.01.2022 01:06 6,7 C 6,1 C 2,8 C 85 % 1026,4 hPa 0,0 l/m 0 min 0 min 0 W/m 16,1 km/h (3 Bft) 93,48 %
30.01.2022 01:08 6,7 C 6,1 C 2,8 C 85 % 1026,4 hPa 0,0 l/m 0 min 0 min 0 W/m 16,1 km/h (3 Bft) 93,62 %
30.01.2022 01:10 6,7 C 6,1 C 2,8 C 85 % 1026,5 hPa 0,0 l/m 0 min 0 min 0 W/m 12,9 km/h (3 Bft) 93,62 %
30.01.2022 01:12 6,6 C 5,6 C 2,8 C 85 % 1026,5 hPa 0,0 l/m 0 min 0 min 0 W/m 19,3 km/h (3 Bft) 91,49 %
30.01.2022 01:14 6,6 C 5,6 C 2,8 C 86 % 1026,5 hPa 0,0 l/m 0 min 0 min 0 W/m 16,1 km/h (3 Bft) 91,49 %
30.01.2022 01:16 6,6 C 5,6 C 2,8 C 86 % 1026,5 hPa 0,0 l/m 0 min 0 min 0 W/m 16,1 km/h (3 Bft) 93,62 %
30.01.2022 01:18 6,5 C 5,6 C 2,8 C 86 % 1026,6 hPa 0,0 l/m 0 min 0 min 0 W/m 16,1 km/h (3 Bft) 93,48 %
30.01.2022 01:20 6,5 C 5,6 C 2,8 C 86 % 1026,5 hPa 0,0 l/m 0 min 0 min 0 W/m 22,5 km/h (4 Bft) 93,62 %
30.01.2022 01:22 6,5 C 5,6 C 2,8 C 86 % 1026,6 hPa 0,0 l/m 0 min 0 min 0 W/m 9,7 km/h (2 Bft) 93,62 %
30.01.2022 01:24 6,4 C 5,6 C 2,8 C 86 % 1026,6 hPa 0,0 l/m 0 min 0 min 0 W/m 12,9 km/h (3 Bft) 93,62 %
30.01.2022 01:26 6,4 C 5,6 C 2,8 C 86 % 1026,6 hPa 0,0 l/m 0 min 0 min 0 W/m 16,1 km/h (3 Bft) 95,74 %
30.01.2022 01:28 6,4 C 5,6 C 2,8 C 86 % 1026,6 hPa 0,0 l/m 0 min 0 min 0 W/m 16,1 km/h (3 Bft) 97,87 %
30.01.2022 01:30 6,3 C 5,6 C 2,8 C 86 % 1026,5 hPa 0,0 l/m 0 min 0 min 0 W/m 22,5 km/h (4 Bft) 95,65 %
30.01.2022 01:32 6,3 C 5,6 C 2,8 C 86 % 1026,6 hPa 0,0 l/m 0 min 0 min 0 W/m 12,9 km/h (3 Bft) 93,75 %
30.01.2022 01:34 6,3 C 5,6 C 2,8 C 86 % 1026,5 hPa 0,0 l/m 0 min 0 min 0 W/m 16,1 km/h (3 Bft) 97,87 %
30.01.2022 01:36 6,3 C 5,6 C 2,8 C 86 % 1026,6 hPa 0,0 l/m 0 min 0 min 0 W/m 16,1 km/h (3 Bft) 97,87 %
30.01.2022 01:38 6,3 C 5,6 C 2,8 C 86 % 1026,6 hPa 0,0 l/m 0 min 0 min 0 W/m 12,9 km/h (3 Bft) 97,87 %
30.01.2022 01:40 6,2 C 5,6 C 2,8 C 86 % 1026,6 hPa 0,0 l/m 0 min 0 min 0 W/m 16,1 km/h (3 Bft) 97,83 %
30.01.2022 01:42 6,2 C 5,6 C 2,8 C 86 % 1026,6 hPa 0,0 l/m 0 min 0 min 0 W/m 22,5 km/h (4 Bft) 97,87 %
30.01.2022 01:44 6,2 C 5,6 C 2,8 C 86 % 1026,6 hPa 0,0 l/m 0 min 0 min 0 W/m 12,9 km/h (3 Bft) 97,87 %
30.01.2022 01:46 6,2 C 5,6 C 2,8 C 86 % 1026,8 hPa 0,0 l/m 0 min 0 min 0 W/m 22,5 km/h (4 Bft) 97,87 %
30.01.2022 01:48 6,2 C 5,6 C 2,8 C 86 % 1026,8 hPa 0,0 l/m 0 min 0 min 0 W/m 12,9 km/h (3 Bft) 95,74 %
30.01.2022 01:50 6,3 C 5,6 C 2,8 C 86 % 1026,8 hPa 0,0 l/m 0 min 0 min 0 W/m 16,1 km/h (3 Bft) 95,74 %
30.01.2022 01:52 6,3 C 5,6 C 2,8 C 86 % 1026,9 hPa 0,0 l/m 0 min 0 min 0 W/m 16,1 km/h (3 Bft) 97,83 %
30.01.2022 01:54 6,3 C 5,6 C 2,8 C 86 % 1026,9 hPa 0,0 l/m 0 min 0 min 0 W/m 12,9 km/h (3 Bft) 97,87 %
30.01.2022 01:56 6,3 C 5,6 C 2,8 C 86 % 1026,9 hPa 0,0 l/m 0 min 0 min 0 W/m 12,9 km/h (3 Bft) 100,00 %
30.01.2022 01:58 6,3 C 5,6 C 2,8 C 86 % 1026,9 hPa 0,0 l/m 0 min 0 min 0 W/m 25,7 km/h (4 Bft) 100,00 %
30.01.2022 02:00 6,3 C 5,6 C 2,8 C 86 % 1026,9 hPa 0,0 l/m 0 min 0 min 0 W/m 12,9 km/h (3 Bft) 100,00 %
30.01.2022 02:02 6,3 C 5,6 C 2,8 C 86 % 1027,0 hPa 0,0 l/m 0 min 0 min 0 W/m 16,1 km/h (3 Bft) 93,62 %
30.01.2022 02:04 6,3 C 5,6 C 2,8 C 86 % 1027,0 hPa 0,0 l/m 0 min 0 min 0 W/m 19,3 km/h (3 Bft) 97,83 %
30.01.2022 02:06 6,3 C 5,6 C 2,8 C 86 % 1027,0 hPa 0,0 l/m 0 min 0 min 0 W/m 12,9 km/h (3 Bft) 100,00 %
30.01.2022 02:08 6,3 C 5,6 C 2,8 C 86 % 1027,0 hPa 0,0 l/m 0 min 0 min 0 W/m 9,7 km/h (2 Bft) 100,00 %
30.01.2022 02:10 6,2 C 5,6 C 2,8 C 86 % 1027,0 hPa 0,0 l/m 0 min 0 min 0 W/m 12,9 km/h (3 Bft) 97,87 %
30.01.2022 02:12 6,2 C 5,6 C 2,2 C 86 % 1027,1 hPa 0,0 l/m 0 min 0 min 0 W/m 12,9 km/h (3 Bft) 97,87 %
30.01.2022 02:14 6,2 C 5,6 C 2,2 C 86 % 1027,0 hPa 0,0 l/m 0 min 0 min 0 W/m 16,1 km/h (3 Bft) 100,00 %
30.01.2022 02:16 6,2 C 5,6 C 2,2 C 86 % 1027,0 hPa 0,0 l/m 0 min 0 min 0 W/m 16,1 km/h (3 Bft) 100,00 %
30.01.2022 02:18 6,1 C 5,0 C 2,2 C 86 % 1027,0 hPa 0,0 l/m 0 min 0 min 0 W/m 16,1 km/h (3 Bft) 100,00 %
30.01.2022 02:20 6,1 C 5,0 C 2,2 C 86 % 1027,0 hPa 0,0 l/m 0 min 0 min 0 W/m 12,9 km/h (3 Bft) 100,00 %
30.01.2022 02:22 6,1 C 5,0 C 2,2 C 86 % 1027,0 hPa 0,0 l/m 0 min 0 min 0 W/m 16,1 km/h (3 Bft) 100,00 %
30.01.2022 02:24 6,0 C 5,0 C 2,2 C 86 % 1027,0 hPa 0,0 l/m 0 min 0 min 0 W/m 12,9 km/h (3 Bft) 100,00 %
30.01.2022 02:26 6,0 C 5,0 C 2,2 C 86 % 1027,0 hPa 0,0 l/m 0 min 0 min 0 W/m 9,7 km/h (2 Bft) 100,00 %
30.01.2022 02:28 5,9 C 5,0 C 2,2 C 86 % 1027,0 hPa 0,0 l/m 0 min 0 min 0 W/m 9,7 km/h (2 Bft) 100,00 %
30.01.2022 02:30 5,9 C 5,0 C 2,2 C 86 % 1026,9 hPa 0,0 l/m 0 min 0 min 0 W/m 16,1 km/h (3 Bft) 100,00 %
30.01.2022 02:32 5,9 C 5,0 C 2,2 C 86 % 1027,0 hPa 0,0 l/m 0 min 0 min 0 W/m 12,9 km/h (3 Bft) 100,00 %
30.01.2022 02:34 5,8 C 5,0 C 2,2 C 86 % 1027,0 hPa 0,0 l/m 0 min 0 min 0 W/m 9,7 km/h (2 Bft) 100,00 %
30.01.2022 02:36 5,8 C 5,0 C 2,2 C 86 % 1027,0 hPa 0,0 l/m 0 min 0 min 0 W/m 9,7 km/h (2 Bft) 100,00 %
30.01.2022 02:38 5,8 C 5,0 C 2,2 C 86 % 1027,0 hPa 0,0 l/m 0 min 0 min 0 W/m 12,9 km/h (3 Bft) 100,00 %
30.01.2022 02:40 5,7 C 5,0 C 2,2 C 87 % 1027,0 hPa 0,0 l/m 0 min 0 min 0 W/m 12,9 km/h (3 Bft) 100,00 %
30.01.2022 02:42 5,7 C 5,0 C 2,2 C 87 % 1027,0 hPa 0,0 l/m 0 min 0 min 0 W/m 19,3 km/h (3 Bft) 97,87 %
30.01.2022 02:44 5,7 C 5,0 C 2,2 C 87 % 1027,1 hPa 0,0 l/m 0 min 0 min 0 W/m 9,7 km/h (2 Bft) 100,00 %
30.01.2022 02:46 5,6 C 5,0 C 2,2 C 87 % 1027,0 hPa 0,0 l/m 0 min 0 min 0 W/m 12,9 km/h (3 Bft) 100,00 %
30.01.2022 02:48 5,6 C 5,0 C 2,2 C 87 % 1027,0 hPa 0,0 l/m 0 min 0 min 0 W/m 12,9 km/h (3 Bft) 100,00 %
30.01.2022 02:50 5,6 C 5,0 C 2,2 C 87 % 1026,9 hPa 0,0 l/m 0 min 0 min 0 W/m 12,9 km/h (3 Bft) 97,87 %
30.01.2022 02:52 5,6 C 5,0 C 1,7 C 87 % 1027,0 hPa 0,0 l/m 0 min 0 min 0 W/m 19,3 km/h (3 Bft) 97,83 %
30.01.2022 02:54 5,6 C 5,0 C 1,7 C 87 % 1026,9 hPa 0,0 l/m 0 min 0 min 0 W/m 16,1 km/h (3 Bft) 97,87 %
30.01.2022 02:56 5,6 C 5,0 C 1,7 C 87 % 1026,9 hPa 0,0 l/m 0 min 0 min 0 W/m 12,9 km/h (3 Bft) 95,74 %
30.01.2022 02:58 5,5 C 4,4 C 1,7 C 87 % 1026,8 hPa 0,0 l/m 0 min 0 min 0 W/m 16,1 km/h (3 Bft) 97,87 %
30.01.2022 03:00 5,5 C 4,4 C 1,7 C 87 % 1026,8 hPa 0,0 l/m 0 min 0 min 0 W/m 12,9 km/h (3 Bft) 97,87 %
30.01.2022 03:02 5,4 C 4,4 C 1,7 C 87 % 1026,8 hPa 0,0 l/m 0 min 0 min 0 W/m 12,9 km/h (3 Bft) 97,87 %
30.01.2022 03:04 5,4 C 4,4 C 1,7 C 87 % 1026,9 hPa 0,0 l/m 0 min 0 min 0 W/m 9,7 km/h (2 Bft) 97,83 %
30.01.2022 03:06 5,4 C 4,4 C 1,7 C 87 % 1026,9 hPa 0,0 l/m 0 min 0 min 0 W/m 12,9 km/h (3 Bft) 95,74 %
30.01.2022 03:08 5,4 C 4,4 C 1,7 C 87 % 1026,9 hPa 0,0 l/m 0 min 0 min 0 W/m 22,5 km/h (4 Bft) 95,74 %
30.01.2022 03:10 5,3 C 4,4 C 1,7 C 87 % 1026,9 hPa 0,0 l/m 0 min 0 min 0 W/m 9,7 km/h (2 Bft) 97,87 %
30.01.2022 03:12 5,3 C 4,4 C 1,7 C 87 % 1027,0 hPa 0,0 l/m 0 min 0 min 0 W/m 12,9 km/h (3 Bft) 95,74 %
30.01.2022 03:14 5,3 C 4,4 C 1,7 C 87 % 1027,0 hPa 0,0 l/m 0 min 0 min 0 W/m 12,9 km/h (3 Bft) 95,74 %
30.01.2022 03:16 5,3 C 4,4 C 1,7 C 87 % 1027,0 hPa 0,0 l/m 0 min 0 min 0 W/m 16,1 km/h (3 Bft) 95,65 %
30.01.2022 03:18 5,2 C 4,4 C 1,7 C 87 % 1027,0 hPa 0,0 l/m 0 min 0 min 0 W/m 12,9 km/h (3 Bft) 95,74 %
30.01.2022 03:20 5,2 C 4,4 C 1,7 C 87 % 1027,0 hPa 0,0 l/m 0 min 0 min 0 W/m 16,1 km/h (3 Bft) 95,74 %
30.01.2022 03:22 5,2 C 4,4 C 1,7 C 88 % 1027,0 hPa 0,0 l/m 0 min 0 min 0 W/m 6,4 km/h (2 Bft) 97,87 %
30.01.2022 03:24 5,2 C 4,4 C 1,7 C 88 % 1027,0 hPa 0,0 l/m 0 min 0 min 0 W/m 22,5 km/h (4 Bft) 97,87 %
30.01.2022 03:26 5,2 C 4,4 C 1,7 C 88 % 1027,0 hPa 0,0 l/m 0 min 0 min 0 W/m 9,7 km/h (2 Bft) 97,83 %
30.01.2022 03:28 5,2 C 4,4 C 1,7 C 88 % 1027,0 hPa 0,0 l/m 0 min 0 min 0 W/m 6,4 km/h (2 Bft) 95,74 %
30.01.2022 03:30 5,2 C 4,4 C 1,7 C 88 % 1027,0 hPa 0,0 l/m 0 min 0 min 0 W/m 16,1 km/h (3 Bft) 97,87 %
30.01.2022 03:32 5,2 C 4,4 C 1,7 C 88 % 1027,0 hPa 0,0 l/m 0 min 0 min 0 W/m 9,7 km/h (2 Bft) 97,87 %
30.01.2022 03:34 5,1 C 4,4 C 1,7 C 88 % 1027,1 hPa 0,0 l/m 0 min 0 min 0 W/m 9,7 km/h (2 Bft) 97,87 %
30.01.2022 03:36 5,1 C 4,4 C 1,7 C 88 % 1027,1 hPa 0,0 l/m 0 min 0 min 0 W/m 12,9 km/h (3 Bft) 95,74 %
30.01.2022 03:38 5,1 C 4,4 C 1,7 C 88 % 1027,2 hPa 0,0 l/m 0 min 0 min 0 W/m 9,7 km/h (2 Bft) 97,87 %
30.01.2022 03:40 5,1 C 4,4 C 1,7 C 88 % 1027,2 hPa 0,0 l/m 0 min 0 min 0 W/m 9,7 km/h (2 Bft) 97,83 %
30.01.2022 03:42 5,1 C 4,4 C 1,7 C 88 % 1027,2 hPa 0,0 l/m 0 min 0 min 0 W/m 16,1 km/h (3 Bft) 97,87 %
30.01.2022 03:44 5,1 C 4,4 C 1,7 C 88 % 1027,3 hPa 0,0 l/m 0 min 0 min 0 W/m 12,9 km/h (3 Bft) 93,62 %
30.01.2022 03:46 5,1 C 4,4 C 1,7 C 88 % 1027,4 hPa 0,0 l/m 0 min 0 min 0 W/m 9,7 km/h (2 Bft) 95,74 %
30.01.2022 03:48 5,0 C 4,4 C 1,7 C 88 % 1027,4 hPa 0,0 l/m 0 min 0 min 0 W/m 6,4 km/h (2 Bft) 97,87 %
30.01.2022 03:50 5,0 C 4,4 C 1,7 C 88 % 1027,4 hPa 0,0 l/m 0 min 0 min 0 W/m 16,1 km/h (3 Bft) 97,87 %
30.01.2022 03:52 5,0 C 4,4 C 1,7 C 88 % 1027,4 hPa 0,0 l/m 0 min 0 min 0 W/m 16,1 km/h (3 Bft) 100,00 %
30.01.2022 03:54 5,0 C 4,4 C 1,7 C 88 % 1027,4 hPa 0,0 l/m 0 min 0 min 0 W/m 9,7 km/h (2 Bft) 100,00 %
30.01.2022 03:56 5,0 C 4,4 C 1,7 C 88 % 1027,4 hPa 0,0 l/m 0 min 0 min 0 W/m 6,4 km/h (2 Bft) 100,00 %
30.01.2022 03:58 5,0 C 4,4 C 1,7 C 88 % 1027,4 hPa 0,0 l/m 0 min 0 min 0 W/m 19,3 km/h (3 Bft) 100,00 %
30.01.2022 04:00 5,1 C 4,4 C 1,7 C 88 % 1027,5 hPa 0,0 l/m 0 min 0 min 0 W/m 12,9 km/h (3 Bft) 100,00 %
30.01.2022 04:02 5,1 C 4,4 C 1,7 C 88 % 1027,4 hPa 0,0 l/m 0 min 0 min 0 W/m 3,2 km/h (1 Bft) 96,67 %
30.01.2022 04:04 5,1 C 4,4 C 1,7 C 88 % 1027,5 hPa 0,0 l/m 0 min 0 min 0 W/m 12,9 km/h (3 Bft) 100,00 %
30.01.2022 04:06 5,1 C 4,4 C 1,7 C 88 % 1027,5 hPa 0,0 l/m 0 min 0 min 0 W/m 9,7 km/h (2 Bft) 100,00 %
30.01.2022 04:08 5,1 C 4,4 C 1,7 C 88 % 1027,5 hPa 0,0 l/m 0 min 0 min 0 W/m 6,4 km/h (2 Bft) 100,00 %
30.01.2022 04:10 5,1 C 4,4 C 1,7 C 88 % 1027,5 hPa 0,0 l/m 0 min 0 min 0 W/m 12,9 km/h (3 Bft) 95,74 %
30.01.2022 04:12 5,1 C 4,4 C 1,7 C 88 % 1027,5 hPa 0,0 l/m 0 min 0 min 0 W/m 12,9 km/h (3 Bft) 95,74 %
30.01.2022 04:14 5,1 C 4,4 C 1,7 C 88 % 1027,5 hPa 0,0 l/m 0 min 0 min 0 W/m 6,4 km/h (2 Bft) 97,83 %
30.01.2022 04:16 5,1 C 4,4 C 1,7 C 88 % 1027,5 hPa 0,0 l/m 0 min 0 min 0 W/m 9,7 km/h (2 Bft) 97,87 %
30.01.2022 04:18 5,1 C 4,4 C 1,7 C 88 % 1027,6 hPa 0,0 l/m 0 min 0 min 0 W/m 9,7 km/h (2 Bft) 97,87 %
30.01.2022 04:20 5,1 C 4,4 C 1,7 C 88 % 1027,6 hPa 0,0 l/m 0 min 0 min 0 W/m 12,9 km/h (3 Bft) 97,87 %
30.01.2022 04:22 5,1 C 4,4 C 1,7 C 88 % 1027,6 hPa 0,0 l/m 0 min 0 min 0 W/m 12,9 km/h (3 Bft) 97,87 %
30.01.2022 04:24 5,0 C 4,4 C 1,7 C 88 % 1027,7 hPa 0,0 l/m 0 min 0 min 0 W/m 9,7 km/h (2 Bft) 95,74 %
30.01.2022 04:26 5,0 C 4,4 C 1,7 C 88 % 1027,7 hPa 0,0 l/m 0 min 0 min 0 W/m 12,9 km/h (3 Bft) 95,65 %
30.01.2022 04:28 5,0 C 4,4 C 1,7 C 88 % 1027,7 hPa 0,0 l/m 0 min 0 min 0 W/m 16,1 km/h (3 Bft) 97,87 %
30.01.2022 04:30 5,0 C 4,4 C 1,7 C 88 % 1027,7 hPa 0,0 l/m 0 min 0 min 0 W/m 12,9 km/h (3 Bft) 93,62 %
30.01.2022 04:32 5,0 C 4,4 C 1,7 C 89 % 1027,7 hPa 0,0 l/m 0 min 0 min 0 W/m 16,1 km/h (3 Bft) 97,92 %
30.01.2022 04:34 5,0 C 4,4 C 1,7 C 88 % 1027,7 hPa 0,0 l/m 0 min 0 min 0 W/m 19,3 km/h (3 Bft) 93,62 %
30.01.2022 04:36 5,0 C 4,4 C 1,7 C 89 % 1027,6 hPa 0,0 l/m 0 min 0 min 0 W/m 16,1 km/h (3 Bft) 95,74 %
30.01.2022 04:38 5,0 C 4,4 C 1,7 C 88 % 1027,7 hPa 0,0 l/m 0 min 0 min 0 W/m 12,9 km/h (3 Bft) 97,83 %
30.01.2022 04:40 5,0 C 4,4 C 1,7 C 89 % 1027,6 hPa 0,0 l/m 0 min 0 min 0 W/m 12,9 km/h (3 Bft) 95,74 %
30.01.2022 04:42 5,0 C 4,4 C 1,7 C 89 % 1027,5 hPa 0,0 l/m 0 min 0 min 0 W/m 12,9 km/h (3 Bft) 91,49 %
30.01.2022 04:44 5,0 C 4,4 C 1,7 C 89 % 1027,6 hPa 0,0 l/m 0 min 0 min 0 W/m 12,9 km/h (3 Bft) 95,74 %
30.01.2022 04:46 5,0 C 4,4 C 1,7 C 88 % 1027,6 hPa 0,0 l/m 0 min 0 min 0 W/m 6,4 km/h (2 Bft) 95,74 %
30.01.2022 04:48 5,0 C 4,4 C 1,7 C 89 % 1027,6 hPa 0,0 l/m 0 min 0 min 0 W/m 16,1 km/h (3 Bft) 93,62 %
30.01.2022 04:50 4,9 C 4,4 C 1,7 C 89 % 1027,6 hPa 0,0 l/m 0 min 0 min 0 W/m 12,9 km/h (3 Bft) 95,65 %
30.01.2022 04:52 4,9 C 4,4 C 1,7 C 89 % 1027,6 hPa 0,0 l/m 0 min 0 min 0 W/m 16,1 km/h (3 Bft) 93,62 %
30.01.2022 04:54 4,9 C 4,4 C 1,7 C 89 % 1027,6 hPa 0,0 l/m 0 min 0 min 0 W/m 9,7 km/h (2 Bft) 95,74 %
30.01.2022 04:56 4,9 C 4,4 C 1,7 C 89 % 1027,7 hPa 0,0 l/m 0 min 0 min 0 W/m 19,3 km/h (3 Bft) 95,92 %
30.01.2022 04:58 4,9 C 4,4 C 1,7 C 89 % 1027,6 hPa 0,0 l/m 0 min 0 min 0 W/m 12,9 km/h (3 Bft) 93,62 %
30.01.2022 05:00 4,9 C 4,4 C 1,7 C 89 % 1027,7 hPa 0,0 l/m 0 min 0 min 0 W/m 12,9 km/h (3 Bft) 97,14 %
30.01.2022 05:02 4,9 C 4,4 C 1,7 C 89 % 1027,7 hPa 0,0 l/m 0 min 0 min 0 W/m 19,3 km/h (3 Bft) 95,74 %
30.01.2022 05:04 4,9 C 4,4 C 1,7 C 89 % 1027,7 hPa 0,0 l/m 0 min 0 min 0 W/m 12,9 km/h (3 Bft) 97,87 %
30.01.2022 05:06 4,8 C 4,4 C 1,7 C 89 % 1027,8 hPa 0,0 l/m 0 min 0 min 0 W/m 16,1 km/h (3 Bft) 97,83 %
30.01.2022 05:08 4,8 C 3,9 C 1,1 C 89 % 1027,9 hPa 0,0 l/m 0 min 0 min 0 W/m 16,1 km/h (3 Bft) 97,87 %
30.01.2022 05:10 4,8 C 3,9 C 1,1 C 89 % 1027,9 hPa 0,0 l/m 0 min 0 min 0 W/m 12,9 km/h (3 Bft) 97,87 %
30.01.2022 05:12 4,8 C 3,9 C 1,1 C 89 % 1027,8 hPa 0,0 l/m 0 min 0 min 0 W/m 16,1 km/h (3 Bft) 100,00 %
30.01.2022 05:14 4,8 C 3,9 C 1,1 C 89 % 1027,9 hPa 0,0 l/m 0 min 0 min 0 W/m 12,9 km/h (3 Bft) 97,87 %
30.01.2022 05:16 4,7 C 3,9 C 1,1 C 89 % 1027,8 hPa 0,0 l/m 0 min 0 min 0 W/m 9,7 km/h (2 Bft) 100,00 %
30.01.2022 05:18 4,7 C 3,9 C 1,1 C 89 % 1027,9 hPa 0,0 l/m 0 min 0 min 0 W/m 12,9 km/h (3 Bft) 100,00 %
30.01.2022 05:20 4,7 C 3,9 C 1,1 C 89 % 1027,9 hPa 0,0 l/m 0 min 0 min 0 W/m 12,9 km/h (3 Bft) 97,87 %
30.01.2022 05:22 4,7 C 3,9 C 1,1 C 89 % 1027,9 hPa 0,0 l/m 0 min 0 min 0 W/m 9,7 km/h (2 Bft) 100,00 %
30.01.2022 05:24 4,6 C 3,9 C 1,1 C 89 % 1027,9 hPa 0,0 l/m 0 min 0 min 0 W/m 12,9 km/h (3 Bft) 97,87 %
30.01.2022 05:26 4,6 C 3,9 C 1,1 C 89 % 1027,9 hPa 0,0 l/m 0 min 0 min 0 W/m 12,9 km/h (3 Bft) 100,00 %
30.01.2022 05:28 4,7 C 3,9 C 1,1 C 90 % 1027,9 hPa 0,0 l/m 0 min 0 min 0 W/m 16,1 km/h (3 Bft) 100,00 %
30.01.2022 05:30 4,7 C 4,4 C 1,1 C 90 % 1027,9 hPa 0,0 l/m 0 min 0 min 0 W/m 19,3 km/h (3 Bft) 100,00 %
30.01.2022 05:32 4,7 C 4,4 C 1,1 C 90 % 1027,9 hPa 0,0 l/m 0 min 0 min 0 W/m 12,9 km/h (3 Bft) 100,00 %
30.01.2022 05:34 4,7 C 4,4 C 1,7 C 90 % 1027,9 hPa 0,0 l/m 0 min 0 min 0 W/m 25,7 km/h (4 Bft) 97,87 %
30.01.2022 05:36 4,7 C 4,4 C 1,7 C 90 % 1027,9 hPa 0,0 l/m 0 min 0 min 0 W/m 12,9 km/h (3 Bft) 100,00 %
30.01.2022 05:38 4,8 C 4,4 C 1,7 C 90 % 1027,9 hPa 0,0 l/m 0 min 0 min 0 W/m 12,9 km/h (3 Bft) 97,87 %
30.01.2022 05:40 4,8 C 4,4 C 1,7 C 90 % 1027,9 hPa 0,0 l/m 0 min 0 min 0 W/m 16,1 km/h (3 Bft) 97,87 %
30.01.2022 05:42 4,8 C 4,4 C 1,7 C 90 % 1027,9 hPa 0,0 l/m 0 min 0 min 0 W/m 12,9 km/h (3 Bft) 97,83 %
30.01.2022 05:44 4,8 C 4,4 C 1,7 C 90 % 1027,9 hPa 0,0 l/m 0 min 0 min 0 W/m 12,9 km/h (3 Bft) 97,87 %
30.01.2022 05:46 4,8 C 4,4 C 1,7 C 89 % 1028,0 hPa 0,0 l/m 0 min 0 min 0 W/m 19,3 km/h (3 Bft) 97,87 %
30.01.2022 05:48 4,8 C 4,4 C 1,1 C 90 % 1028,0 hPa 0,0 l/m 0 min 0 min 0 W/m 16,1 km/h (3 Bft) 95,74 %
30.01.2022 05:50 4,8 C 3,9 C 1,1 C 90 % 1027,9 hPa 0,0 l/m 0 min 0 min 0 W/m 9,7 km/h (2 Bft) 97,87 %
30.01.2022 05:52 4,8 C 3,9 C 1,1 C 89 % 1028,0 hPa 0,0 l/m 0 min 0 min 0 W/m 12,9 km/h (3 Bft) 97,87 %
30.01.2022 05:54 4,7 C 3,9 C 1,1 C 89 % 1028,0 hPa 0,0 l/m 0 min 0 min 0 W/m 12,9 km/h (3 Bft) 97,83 %
30.01.2022 05:56 4,7 C 3,9 C 1,1 C 89 % 1028,0 hPa 0,0 l/m 0 min 0 min 0 W/m 16,1 km/h (3 Bft) 97,87 %
30.01.2022 05:58 4,7 C 3,9 C 1,1 C 89 % 1028,0 hPa 0,0 l/m 0 min 0 min 0 W/m 16,1 km/h (3 Bft) 97,87 %
30.01.2022 06:00 4,7 C 3,9 C 1,1 C 89 % 1028,0 hPa 0,0 l/m 0 min 0 min 0 W/m 12,9 km/h (3 Bft) 97,87 %
30.01.2022 06:02 4,6 C 3,9 C 1,1 C 89 % 1027,9 hPa 0,0 l/m 0 min 0 min 0 W/m 12,9 km/h (3 Bft) 93,62 %
30.01.2022 06:04 4,6 C 3,9 C 1,1 C 90 % 1028,0 hPa 0,0 l/m 0 min 0 min 0 W/m 9,7 km/h (2 Bft) 97,87 %
30.01.2022 06:08 4,6 C 3,9 C 1,1 C 90 % 1028,0 hPa 0,0 l/m 0 min 0 min 0 W/m 22,5 km/h (4 Bft) 96,77 %
30.01.2022 06:10 4,6 C 3,9 C 1,1 C 90 % 1028,0 hPa 0,0 l/m 0 min 0 min 0 W/m 12,9 km/h (3 Bft) 97,87 %
30.01.2022 06:12 4,5 C 3,9 C 1,1 C 90 % 1028,0 hPa 0,0 l/m 0 min 0 min 0 W/m 16,1 km/h (3 Bft) 97,87 %
30.01.2022 06:14 4,5 C 3,9 C 1,1 C 90 % 1028,1 hPa 0,0 l/m 0 min 0 min 0 W/m 9,7 km/h (2 Bft) 95,74 %
30.01.2022 06:16 4,4 C 3,9 C 1,1 C 90 % 1028,1 hPa 0,0 l/m 0 min 0 min 0 W/m 9,7 km/h (2 Bft) 100,00 %
30.01.2022 06:18 4,4 C 3,9 C 1,1 C 90 % 1028,1 hPa 0,0 l/m 0 min 0 min 0 W/m 9,7 km/h (2 Bft) 97,87 %
30.01.2022 06:20 4,4 C 3,9 C 1,1 C 90 % 1028,2 hPa 0,0 l/m 0 min 0 min 0 W/m 9,7 km/h (2 Bft) 95,74 %
30.01.2022 06:22 4,4 C 3,9 C 1,1 C 90 % 1028,3 hPa 0,0 l/m 0 min 0 min 0 W/m 12,9 km/h (3 Bft) 95,74 %
30.01.2022 06:24 4,4 C 3,9 C 1,1 C 90 % 1028,3 hPa 0,0 l/m 0 min 0 min 0 W/m 12,9 km/h (3 Bft) 100,00 %
30.01.2022 06:26 4,3 C 3,3 C 1,1 C 90 % 1028,3 hPa 0,0 l/m 0 min 0 min 0 W/m 16,1 km/h (3 Bft) 97,87 %
30.01.2022 06:28 4,3 C 3,3 C 1,1 C 90 % 1028,4 hPa 0,0 l/m 0 min 0 min 0 W/m 9,7 km/h (2 Bft) 97,87 %
30.01.2022 06:30 4,3 C 3,3 C 1,1 C 90 % 1028,4 hPa 0,0 l/m 0 min 0 min 0 W/m 16,1 km/h (3 Bft) 97,83 %
30.01.2022 06:32 4,3 C 3,3 C 0,6 C 90 % 1028,5 hPa 0,0 l/m 0 min 0 min 0 W/m 19,3 km/h (3 Bft) 97,87 %
30.01.2022 06:34 4,3 C 3,3 C 1,1 C 90 % 1028,4 hPa 0,0 l/m 0 min 0 min 0 W/m 12,9 km/h (3 Bft) 97,87 %
30.01.2022 06:36 4,3 C 3,3 C 1,1 C 90 % 1028,4 hPa 0,0 l/m 0 min 0 min 0 W/m 12,9 km/h (3 Bft) 97,87 %
30.01.2022 06:38 4,3 C 3,9 C 1,1 C 90 % 1028,4 hPa 0,0 l/m 0 min 0 min 0 W/m 19,3 km/h (3 Bft) 97,87 %
30.01.2022 06:40 4,3 C 3,3 C 1,1 C 90 % 1028,4 hPa 0,0 l/m 0 min 0 min 0 W/m 9,7 km/h (2 Bft) 97,83 %
30.01.2022 06:42 4,3 C 3,3 C 1,1 C 90 % 1028,5 hPa 0,0 l/m 0 min 0 min 0 W/m 12,9 km/h (3 Bft) 97,87 %
30.01.2022 06:44 4,2 C 3,3 C 1,1 C 90 % 1028,5 hPa 0,0 l/m 0 min 0 min 0 W/m 16,1 km/h (3 Bft) 97,87 %
30.01.2022 06:46 4,2 C 3,3 C 0,6 C 90 % 1028,5 hPa 0,0 l/m 0 min 0 min 0 W/m 9,7 km/h (2 Bft) 97,87 %
30.01.2022 06:48 4,2 C 3,3 C 0,6 C 90 % 1028,5 hPa 0,0 l/m 0 min 0 min 0 W/m 12,9 km/h (3 Bft) 97,87 %
30.01.2022 06:50 4,2 C 3,3 C 0,6 C 90 % 1028,5 hPa 0,0 l/m 0 min 0 min 0 W/m 12,9 km/h (3 Bft) 97,87 %
30.01.2022 06:52 4,2 C 3,3 C 0,6 C 90 % 1028,5 hPa 0,0 l/m 0 min 0 min 0 W/m 12,9 km/h (3 Bft) 95,65 %
30.01.2022 06:54 4,2 C 3,3 C 0,6 C 90 % 1028,5 hPa 0,0 l/m 0 min 0 min 0 W/m 9,7 km/h (2 Bft) 97,87 %
30.01.2022 06:56 4,1 C 3,3 C 0,6 C 90 % 1028,6 hPa 0,0 l/m 0 min 0 min 0 W/m 16,1 km/h (3 Bft) 95,74 %
30.01.2022 06:58 4,1 C 3,3 C 0,6 C 90 % 1028,5 hPa 0,0 l/m 0 min 0 min 0 W/m 6,4 km/h (2 Bft) 97,87 %
30.01.2022 07:00 4,1 C 3,3 C 0,6 C 90 % 1028,6 hPa 0,0 l/m 0 min 0 min 0 W/m 16,1 km/h (3 Bft) 100,00 %
30.01.2022 07:02 4,1 C 3,3 C 0,6 C 90 % 1028,5 hPa 0,0 l/m 0 min 0 min 0 W/m 16,1 km/h (3 Bft) 100,00 %
30.01.2022 07:04 4,1 C 3,3 C 0,6 C 90 % 1028,5 hPa 0,0 l/m 0 min 0 min 0 W/m 16,1 km/h (3 Bft) 97,83 %
30.01.2022 07:06 4,1 C 3,3 C 0,6 C 90 % 1028,5 hPa 0,0 l/m 0 min 0 min 0 W/m 16,1 km/h (3 Bft) 100,00 %
30.01.2022 07:08 4,1 C 3,3 C 0,6 C 90 % 1028,6 hPa 0,0 l/m 0 min 0 min 0 W/m 16,1 km/h (3 Bft) 100,00 %
30.01.2022 07:10 4,1 C 3,3 C 0,6 C 90 % 1028,6 hPa 0,0 l/m 0 min 0 min 0 W/m 16,1 km/h (3 Bft) 100,00 %
30.01.2022 07:12 4,1 C 3,3 C 1,1 C 90 % 1028,6 hPa 0,0 l/m 0 min 0 min 0 W/m 16,1 km/h (3 Bft) 100,00 %
30.01.2022 07:14 4,1 C 3,9 C 1,1 C 90 % 1028,6 hPa 0,0 l/m 0 min 0 min 0 W/m 12,9 km/h (3 Bft) 100,00 %
30.01.2022 07:16 4,2 C 3,9 C 1,1 C 90 % 1028,5 hPa 0,0 l/m 0 min 0 min 0 W/m 9,7 km/h (2 Bft) 97,83 %
30.01.2022 07:18 4,2 C 3,9 C 1,1 C 90 % 1028,6 hPa 0,0 l/m 0 min 0 min 0 W/m 12,9 km/h (3 Bft) 100,00 %
30.01.2022 07:20 4,2 C 3,9 C 1,1 C 90 % 1028,6 hPa 0,0 l/m 0 min 0 min 0 W/m 16,1 km/h (3 Bft) 95,74 %
30.01.2022 07:22 4,2 C 3,9 C 1,1 C 90 % 1028,7 hPa 0,0 l/m 0 min 0 min 0 W/m 12,9 km/h (3 Bft) 95,74 %
30.01.2022 07:24 4,3 C 3,9 C 1,1 C 90 % 1028,8 hPa 0,0 l/m 0 min 0 min 0 W/m 12,9 km/h (3 Bft) 97,87 %
30.01.2022 07:26 4,3 C 3,9 C 1,1 C 90 % 1028,8 hPa 0,0 l/m 0 min 0 min 0 W/m 9,7 km/h (2 Bft) 97,87 %
30.01.2022 07:28 4,3 C 3,9 C 1,1 C 90 % 1028,8 hPa 0,0 l/m 0 min 0 min 0 W/m 6,4 km/h (2 Bft) 97,83 %
30.01.2022 07:30 4,3 C 3,9 C 1,1 C 90 % 1028,9 hPa 0,0 l/m 0 min 0 min 0 W/m 12,9 km/h (3 Bft) 97,87 %
30.01.2022 07:32 4,3 C 3,9 C 1,1 C 90 % 1028,9 hPa 0,0 l/m 0 min 0 min 0 W/m 6,4 km/h (2 Bft) 95,74 %
30.01.2022 07:34 4,3 C 3,9 C 1,1 C 90 % 1029,0 hPa 0,0 l/m 0 min 0 min 0 W/m 6,4 km/h (2 Bft) 97,87 %
30.01.2022 07:36 4,4 C 3,9 C 1,1 C 90 % 1029,1 hPa 0,0 l/m 0 min 0 min 0 W/m 12,9 km/h (3 Bft) 97,87 %
30.01.2022 07:38 4,4 C 3,9 C 1,1 C 90 % 1029,1 hPa 0,0 l/m 0 min 0 min 0 W/m 12,9 km/h (3 Bft) 95,74 %
30.01.2022 07:40 4,4 C 3,9 C 1,1 C 89 % 1029,1 hPa 0,0 l/m 0 min 0 min 0 W/m 9,7 km/h (2 Bft) 95,65 %
30.01.2022 07:42 4,4 C 3,9 C 1,1 C 89 % 1029,1 hPa 0,0 l/m 0 min 0 min 0 W/m 9,7 km/h (2 Bft) 95,74 %
30.01.2022 07:44 4,4 C 3,9 C 1,1 C 89 % 1029,1 hPa 0,0 l/m 0 min 0 min 0 W/m 9,7 km/h (2 Bft) 97,87 %
30.01.2022 07:46 4,4 C 3,9 C 1,1 C 89 % 1029,1 hPa 0,0 l/m 0 min 0 min 0 W/m 9,7 km/h (2 Bft) 97,87 %
30.01.2022 07:48 4,4 C 3,9 C 1,1 C 89 % 1029,2 hPa 0,0 l/m 0 min 0 min 0 W/m 12,9 km/h (3 Bft) 97,87 %
30.01.2022 07:50 4,4 C 3,9 C 1,1 C 89 % 1029,2 hPa 0,0 l/m 0 min 0 min 0 W/m 9,7 km/h (2 Bft) 97,87 %
30.01.2022 07:52 4,4 C 3,9 C 1,1 C 89 % 1029,1 hPa 0,0 l/m 0 min 0 min 0 W/m 16,1 km/h (3 Bft) 93,48 %
30.01.2022 07:54 4,4 C 3,9 C 1,1 C 89 % 1029,1 hPa 0,0 l/m 0 min 0 min 0 W/m 12,9 km/h (3 Bft) 97,87 %
30.01.2022 07:56 4,4 C 3,9 C 1,1 C 89 % 1029,2 hPa 0,0 l/m 0 min 0 min 0 W/m 16,1 km/h (3 Bft) 95,74 %
30.01.2022 07:58 4,5 C 3,9 C 1,1 C 89 % 1029,2 hPa 0,0 l/m 0 min 0 min 0 W/m 12,9 km/h (3 Bft) 41,67 %
30.01.2022 08:00 4,4 C 3,9 C 1,1 C 89 % 1029,2 hPa 0,0 l/m 0 min 0 min 0 W/m 9,7 km/h (2 Bft) 95,74 %
30.01.2022 08:02 4,4 C 3,9 C 1,1 C 89 % 1029,3 hPa 0,0 l/m 0 min 0 min 0 W/m 9,7 km/h (2 Bft) 95,74 %
30.01.2022 08:04 4,4 C 3,9 C 1,1 C 89 % 1029,3 hPa 0,0 l/m 0 min 0 min 0 W/m 6,4 km/h (2 Bft) 95,65 %
30.01.2022 08:06 4,4 C 3,9 C 1,1 C 89 % 1029,4 hPa 0,0 l/m 0 min 0 min 0 W/m 12,9 km/h (3 Bft) 93,62 %
30.01.2022 08:08 4,4 C 3,9 C 1,1 C 89 % 1029,4 hPa 0,0 l/m 0 min 0 min 0 W/m 16,1 km/h (3 Bft) 95,74 %
30.01.2022 08:10 4,3 C 3,3 C 1,1 C 89 % 1029,4 hPa 0,0 l/m 0 min 0 min 0 W/m 16,1 km/h (3 Bft) 95,74 %
30.01.2022 08:12 4,3 C 3,3 C 1,1 C 89 % 1029,4 hPa 0,0 l/m 0 min 0 min 0 W/m 12,9 km/h (3 Bft) 95,74 %
30.01.2022 08:14 4,3 C 3,3 C 1,1 C 89 % 1029,4 hPa 0,0 l/m 0 min 0 min 0 W/m 16,1 km/h (3 Bft) 97,87 %
30.01.2022 08:16 4,3 C 3,3 C 1,1 C 89 % 1029,4 hPa 0,0 l/m 0 min 0 min 2 W/m 12,9 km/h (3 Bft) 97,83 %
30.01.2022 08:18 4,2 C 3,3 C 1,1 C 89 % 1029,4 hPa 0,0 l/m 0 min 0 min 5 W/m 12,9 km/h (3 Bft) 95,74 %
30.01.2022 08:20 4,2 C 3,9 C 1,1 C 89 % 1029,4 hPa 0,0 l/m 0 min 0 min 5 W/m 12,9 km/h (3 Bft) 95,74 %
30.01.2022 08:22 4,2 C 3,9 C 1,1 C 89 % 1029,4 hPa 0,0 l/m 0 min 0 min 5 W/m 6,4 km/h (2 Bft) 95,74 %
30.01.2022 08:24 4,3 C 3,9 C 1,1 C 89 % 1029,5 hPa 0,0 l/m 0 min 0 min 5 W/m 12,9 km/h (3 Bft) 95,74 %
30.01.2022 08:26 4,3 C 3,9 C 1,1 C 89 % 1029,6 hPa 0,0 l/m 0 min 0 min 5 W/m 12,9 km/h (3 Bft) 95,74 %
30.01.2022 08:28 4,3 C 3,9 C 1,1 C 89 % 1029,5 hPa 0,0 l/m 0 min 0 min 6 W/m 12,9 km/h (3 Bft) 95,65 %
30.01.2022 08:30 4,3 C 3,9 C 1,1 C 89 % 1029,6 hPa 0,0 l/m 0 min 0 min 7 W/m 12,9 km/h (3 Bft) 93,62 %
30.01.2022 08:32 4,3 C 3,9 C 1,1 C 89 % 1029,5 hPa 0,0 l/m 0 min 0 min 7 W/m 9,7 km/h (2 Bft) 97,87 %
30.01.2022 08:34 4,3 C 3,9 C 1,1 C 89 % 1029,5 hPa 0,0 l/m 0 min 0 min 8 W/m 9,7 km/h (2 Bft) 91,49 %
30.01.2022 08:36 4,3 C 3,9 C 1,1 C 89 % 1029,5 hPa 0,0 l/m 0 min 0 min 9 W/m 12,9 km/h (3 Bft) 93,62 %
30.01.2022 08:38 4,3 C 3,9 C 1,1 C 89 % 1029,6 hPa 0,0 l/m 0 min 0 min 11 W/m 9,7 km/h (2 Bft) 95,74 %
30.01.2022 08:40 4,3 C 3,9 C 1,1 C 89 % 1029,6 hPa 0,0 l/m 0 min 0 min 15 W/m 6,4 km/h (2 Bft) 95,65 %
30.01.2022 08:42 4,3 C 3,9 C 1,1 C 89 % 1029,6 hPa 0,0 l/m 0 min 0 min 14 W/m 16,1 km/h (3 Bft) 95,74 %
30.01.2022 08:44 4,3 C 3,9 C 1,1 C 89 % 1029,7 hPa 0,0 l/m 0 min 0 min 14 W/m 19,3 km/h (3 Bft) 95,74 %
30.01.2022 08:46 4,3 C 3,9 C 1,1 C 89 % 1029,7 hPa 0,0 l/m 0 min 0 min 18 W/m 12,9 km/h (3 Bft) 95,74 %
30.01.2022 08:48 4,3 C 3,9 C 1,1 C 89 % 1029,7 hPa 0,0 l/m 0 min 0 min 16 W/m 12,9 km/h (3 Bft) 97,87 %
30.01.2022 08:50 4,3 C 3,9 C 1,1 C 89 % 1029,7 hPa 0,0 l/m 0 min 0 min 18 W/m 12,9 km/h (3 Bft) 97,87 %
30.01.2022 08:52 4,3 C 3,9 C 1,1 C 89 % 1029,8 hPa 0,0 l/m 0 min 0 min 22 W/m 12,9 km/h (3 Bft) 95,65 %
30.01.2022 08:54 4,3 C 3,9 C 1,1 C 89 % 1029,7 hPa 0,0 l/m 0 min 0 min 23 W/m 9,7 km/h (2 Bft) 100,00 %
30.01.2022 08:56 4,3 C 3,9 C 1,1 C 89 % 1029,7 hPa 0,0 l/m 0 min 0 min 17 W/m 12,9 km/h (3 Bft) 100,00 %
30.01.2022 08:58 4,2 C 3,9 C 1,1 C 89 % 1029,8 hPa 0,0 l/m 0 min 0 min 18 W/m 6,4 km/h (2 Bft) 100,00 %
30.01.2022 09:00 4,2 C 3,9 C 1,1 C 89 % 1029,8 hPa 0,0 l/m 0 min 0 min 20 W/m 12,9 km/h (3 Bft) 100,00 %
30.01.2022 09:02 4,2 C 3,9 C 1,1 C 89 % 1029,8 hPa 0,0 l/m 0 min 0 min 23 W/m 12,9 km/h (3 Bft) 100,00 %
30.01.2022 09:04 4,2 C 3,9 C 1,1 C 89 % 1029,8 hPa 0,0 l/m 0 min 0 min 28 W/m 16,1 km/h (3 Bft) 100,00 %
30.01.2022 09:06 4,2 C 3,9 C 1,1 C 89 % 1029,9 hPa 0,0 l/m 0 min 0 min 33 W/m 9,7 km/h (2 Bft) 100,00 %
30.01.2022 09:08 4,2 C 3,9 C 1,1 C 89 % 1029,8 hPa 0,0 l/m 0 min 0 min 37 W/m 16,1 km/h (3 Bft) 100,00 %
30.01.2022 09:10 4,2 C 3,9 C 1,1 C 89 % 1029,8 hPa 0,0 l/m 0 min 0 min 39 W/m 9,7 km/h (2 Bft) 100,00 %
30.01.2022 09:12 4,2 C 3,9 C 1,1 C 89 % 1029,9 hPa 0,0 l/m 0 min 0 min 41 W/m 6,4 km/h (2 Bft) 100,00 %
30.01.2022 09:14 4,3 C 3,9 C 1,1 C 89 % 1029,8 hPa 0,0 l/m 0 min 0 min 43 W/m 9,7 km/h (2 Bft) 100,00 %
30.01.2022 09:16 4,3 C 3,9 C 1,1 C 89 % 1029,9 hPa 0,0 l/m 0 min 0 min 46 W/m 12,9 km/h (3 Bft) 100,00 %
30.01.2022 09:18 4,3 C 3,9 C 1,1 C 89 % 1029,9 hPa 0,0 l/m 0 min 0 min 61 W/m 12,9 km/h (3 Bft) 100,00 %
30.01.2022 09:20 4,3 C 4,4 C 1,1 C 89 % 1030,0 hPa 0,0 l/m 0 min 0 min 71 W/m 19,3 km/h (3 Bft) 100,00 %
30.01.2022 09:22 4,3 C 4,4 C 1,1 C 89 % 1030,1 hPa 0,0 l/m 0 min 0 min 73 W/m 12,9 km/h (3 Bft) 97,87 %
30.01.2022 09:24 4,4 C 4,4 C 1,7 C 89 % 1030,2 hPa 0,0 l/m 2 min 0 min 80 W/m 9,7 km/h (2 Bft) 100,00 %
30.01.2022 09:26 4,5 C 4,4 C 1,7 C 89 % 1030,2 hPa 0,0 l/m 0 min 0 min 73 W/m 12,9 km/h (3 Bft) 100,00 %
30.01.2022 09:28 4,6 C 4,4 C 1,7 C 89 % 1030,2 hPa 0,0 l/m 0 min 0 min 64 W/m 16,1 km/h (3 Bft) 100,00 %
30.01.2022 09:30 4,6 C 4,4 C 1,7 C 89 % 1030,2 hPa 0,0 l/m 0 min 0 min 78 W/m 19,3 km/h (3 Bft) 100,00 %
30.01.2022 09:32 4,6 C 5,0 C 1,7 C 89 % 1030,2 hPa 0,0 l/m 2 min 0 min 91 W/m 12,9 km/h (3 Bft) 100,00 %
30.01.2022 09:34 4,7 C 5,0 C 1,7 C 88 % 1030,1 hPa 0,0 l/m 2 min 0 min 103 W/m 16,1 km/h (3 Bft) 100,00 %
30.01.2022 09:36 4,7 C 5,0 C 1,7 C 88 % 1030,1 hPa 0,0 l/m 0 min 0 min 77 W/m 12,9 km/h (3 Bft) 100,00 %
30.01.2022 09:38 4,8 C 5,0 C 1,7 C 88 % 1030,1 hPa 0,0 l/m 0 min 0 min 57 W/m 16,1 km/h (3 Bft) 100,00 %
30.01.2022 09:40 4,8 C 5,0 C 1,7 C 88 % 1030,2 hPa 0,0 l/m 0 min 0 min 47 W/m 12,9 km/h (3 Bft) 100,00 %
30.01.2022 09:42 4,9 C 4,4 C 1,7 C 88 % 1030,1 hPa 0,0 l/m 0 min 0 min 49 W/m 12,9 km/h (3 Bft) 100,00 %
30.01.2022 09:44 4,9 C 4,4 C 1,7 C 88 % 1030,1 hPa 0,0 l/m 0 min 0 min 52 W/m 6,4 km/h (2 Bft) 100,00 %
30.01.2022 09:46 4,9 C 4,4 C 1,7 C 88 % 1030,1 hPa 0,0 l/m 0 min 0 min 54 W/m 12,9 km/h (3 Bft) 100,00 %
30.01.2022 09:48 4,9 C 4,4 C 1,7 C 88 % 1030,2 hPa 0,0 l/m 0 min 0 min 52 W/m 16,1 km/h (3 Bft) 100,00 %
30.01.2022 09:50 4,9 C 4,4 C 1,7 C 87 % 1030,1 hPa 0,0 l/m 0 min 0 min 52 W/m 12,9 km/h (3 Bft) 97,83 %
30.01.2022 09:52 4,9 C 4,4 C 1,7 C 87 % 1030,2 hPa 0,0 l/m 0 min 0 min 52 W/m 16,1 km/h (3 Bft) 97,87 %
30.01.2022 09:54 5,0 C 4,4 C 1,7 C 87 % 1030,1 hPa 0,0 l/m 0 min 0 min 56 W/m 12,9 km/h (3 Bft) 100,00 %
30.01.2022 09:56 5,0 C 4,4 C 1,7 C 87 % 1030,1 hPa 0,0 l/m 0 min 0 min 59 W/m 22,5 km/h (4 Bft) 100,00 %
30.01.2022 09:58 5,1 C 4,4 C 1,7 C 87 % 1030,1 hPa 0,0 l/m 0 min 0 min 58 W/m 12,9 km/h (3 Bft) 100,00 %
30.01.2022 10:00 5,0 C 5,0 C 1,7 C 87 % 1030,1 hPa 0,0 l/m 0 min 0 min 69 W/m 16,1 km/h (3 Bft) 100,00 %
30.01.2022 10:02 5,1 C 5,0 C 1,7 C 87 % 1030,1 hPa 0,0 l/m 0 min 0 min 82 W/m 12,9 km/h (3 Bft) 53,49 %
30.01.2022 10:04 5,1 C 5,0 C 1,7 C 87 % 1030,1 hPa 0,0 l/m 0 min 0 min 90 W/m 19,3 km/h (3 Bft) 95,74 %
30.01.2022 10:06 5,1 C 5,0 C 2,2 C 87 % 1030,2 hPa 0,0 l/m 0 min 0 min 105 W/m 12,9 km/h (3 Bft) 100,00 %
30.01.2022 10:08 5,1 C 5,0 C 2,2 C 87 % 1030,2 hPa 0,0 l/m 0 min 0 min 99 W/m 19,3 km/h (3 Bft) 100,00 %
30.01.2022 10:10 5,2 C 5,0 C 2,2 C 87 % 1030,2 hPa 0,0 l/m 0 min 0 min 90 W/m 12,9 km/h (3 Bft) 100,00 %
30.01.2022 10:12 5,2 C 5,0 C 2,2 C 86 % 1030,3 hPa 0,0 l/m 0 min 0 min 97 W/m 12,9 km/h (3 Bft) 97,87 %
30.01.2022 10:14 5,2 C 5,0 C 2,2 C 86 % 1030,3 hPa 0,0 l/m 0 min 0 min 98 W/m 12,9 km/h (3 Bft) 95,65 %
30.01.2022 10:16 5,3 C 5,6 C 2,2 C 86 % 1030,3 hPa 0,0 l/m 0 min 0 min 94 W/m 19,3 km/h (3 Bft) 95,74 %
30.01.2022 10:18 5,3 C 5,6 C 2,2 C 86 % 1030,3 hPa 0,0 l/m 0 min 0 min 113 W/m 12,9 km/h (3 Bft) 95,74 %
30.01.2022 10:20 5,3 C 5,6 C 2,2 C 86 % 1030,3 hPa 0,0 l/m 0 min 0 min 104 W/m 12,9 km/h (3 Bft) 95,74 %
30.01.2022 10:22 5,4 C 5,6 C 2,2 C 86 % 1030,4 hPa 0,0 l/m 0 min 0 min 111 W/m 16,1 km/h (3 Bft) 97,87 %
30.01.2022 10:24 5,4 C 5,6 C 2,2 C 86 % 1030,3 hPa 0,0 l/m 0 min 0 min 112 W/m 22,5 km/h (4 Bft) 95,74 %
30.01.2022 10:26 5,4 C 5,6 C 2,2 C 85 % 1030,3 hPa 0,0 l/m 0 min 0 min 102 W/m 12,9 km/h (3 Bft) 95,65 %
30.01.2022 10:28 5,5 C 5,6 C 2,2 C 85 % 1030,4 hPa 0,0 l/m 0 min 0 min 97 W/m 19,3 km/h (3 Bft) 93,62 %
30.01.2022 10:30 5,6 C 5,6 C 2,2 C 85 % 1030,4 hPa 0,0 l/m 0 min 0 min 111 W/m 12,9 km/h (3 Bft) 95,74 %
30.01.2022 10:32 5,6 C 5,6 C 2,2 C 85 % 1030,3 hPa 0,0 l/m 0 min 0 min 127 W/m 12,9 km/h (3 Bft) 93,62 %
30.01.2022 10:34 5,6 C 6,1 C 2,8 C 85 % 1030,3 hPa 0,0 l/m 2 min 0 min 167 W/m 12,9 km/h (3 Bft) 95,74 %
30.01.2022 10:36 5,7 C 6,1 C 2,8 C 85 % 1030,3 hPa 0,0 l/m 0 min 0 min 140 W/m 9,7 km/h (2 Bft) 93,48 %
30.01.2022 10:38 5,7 C 6,1 C 2,8 C 85 % 1030,3 hPa 0,0 l/m 2 min 0 min 152 W/m 12,9 km/h (3 Bft) 93,62 %
30.01.2022 10:40 5,7 C 6,1 C 2,8 C 85 % 1030,3 hPa 0,0 l/m 0 min 0 min 150 W/m 12,9 km/h (3 Bft) 95,74 %
30.01.2022 10:42 5,8 C 6,1 C 2,8 C 84 % 1030,3 hPa 0,0 l/m 0 min 0 min 124 W/m 12,9 km/h (3 Bft) 95,74 %
30.01.2022 10:44 5,8 C 6,1 C 2,8 C 84 % 1030,3 hPa 0,0 l/m 0 min 0 min 114 W/m 16,1 km/h (3 Bft) 93,62 %
30.01.2022 10:46 5,8 C 6,1 C 2,8 C 84 % 1030,4 hPa 0,0 l/m 0 min 0 min 116 W/m 12,9 km/h (3 Bft) 95,74 %
30.01.2022 10:48 5,8 C 6,1 C 2,8 C 84 % 1030,4 hPa 0,0 l/m 0 min 0 min 120 W/m 9,7 km/h (2 Bft) 91,49 %
30.01.2022 10:50 5,8 C 6,1 C 2,8 C 84 % 1030,3 hPa 0,0 l/m 0 min 0 min 112 W/m 16,1 km/h (3 Bft) 93,48 %
30.01.2022 10:52 5,8 C 5,6 C 2,8 C 84 % 1030,3 hPa 0,0 l/m 0 min 0 min 98 W/m 16,1 km/h (3 Bft) 93,62 %
30.01.2022 10:54 5,8 C 5,6 C 2,8 C 84 % 1030,3 hPa 0,0 l/m 0 min 0 min 89 W/m 22,5 km/h (4 Bft) 95,74 %
30.01.2022 10:56 5,8 C 6,1 C 2,8 C 84 % 1030,3 hPa 0,0 l/m 0 min 0 min 112 W/m 22,5 km/h (4 Bft) 95,74 %
30.01.2022 10:58 5,8 C 8,3 C 2,8 C 84 % 1030,3 hPa 0,0 l/m 2 min 0 min 254 W/m 22,5 km/h (4 Bft) 95,74 %
30.01.2022 11:00 5,9 C 10,0 C 2,8 C 84 % 1030,3 hPa 0,0 l/m 2 min 0 min 369 W/m 19,3 km/h (3 Bft) 95,74 %
30.01.2022 11:02 6,1 C 10,6 C 2,8 C 84 % 1030,3 hPa 0,0 l/m 2 min 0 min 380 W/m 16,1 km/h (3 Bft) 95,65 %
30.01.2022 11:04 6,3 C 10,0 C 3,3 C 84 % 1030,3 hPa 0,0 l/m 2 min 0 min 326 W/m 19,3 km/h (3 Bft) 97,87 %
30.01.2022 11:06 6,3 C 8,3 C 3,3 C 83 % 1030,3 hPa 0,0 l/m 0 min 0 min 158 W/m 12,9 km/h (3 Bft) 97,87 %
30.01.2022 11:08 6,3 C 6,7 C 2,8 C 83 % 1030,3 hPa 0,0 l/m 0 min 0 min 99 W/m 19,3 km/h (3 Bft) 95,74 %
30.01.2022 11:10 6,3 C 6,7 C 2,8 C 83 % 1030,3 hPa 0,0 l/m 0 min 0 min 97 W/m 16,1 km/h (3 Bft) 97,87 %
30.01.2022 11:12 6,3 C 6,7 C 2,8 C 82 % 1030,3 hPa 0,0 l/m 0 min 0 min 137 W/m 9,7 km/h (2 Bft) 97,83 %
30.01.2022 11:14 6,3 C 7,2 C 2,8 C 82 % 1030,3 hPa 0,0 l/m 2 min 0 min 186 W/m 25,7 km/h (4 Bft) 97,87 %
30.01.2022 11:16 6,3 C 8,3 C 2,8 C 82 % 1030,3 hPa 0,0 l/m 2 min 0 min 233 W/m 12,9 km/h (3 Bft) 97,87 %
30.01.2022 11:18 6,3 C 8,3 C 2,8 C 82 % 1030,3 hPa 0,0 l/m 2 min 0 min 194 W/m 19,3 km/h (3 Bft) 97,87 %
30.01.2022 11:20 6,3 C 9,4 C 2,8 C 82 % 1030,4 hPa 0,0 l/m 2 min 0 min 252 W/m 12,9 km/h (3 Bft) 95,74 %
30.01.2022 11:22 6,4 C 11,1 C 2,8 C 83 % 1030,4 hPa 0,0 l/m 2 min 0 min 300 W/m 19,3 km/h (3 Bft) 97,87 %
30.01.2022 11:24 6,5 C 11,1 C 2,8 C 82 % 1030,3 hPa 0,0 l/m 2 min 0 min 311 W/m 22,5 km/h (4 Bft) 97,83 %
30.01.2022 11:26 6,6 C 11,1 C 2,8 C 82 % 1030,3 hPa 0,0 l/m 2 min 0 min 310 W/m 16,1 km/h (3 Bft) 97,87 %
30.01.2022 11:28 6,6 C 11,1 C 2,8 C 82 % 1030,3 hPa 0,0 l/m 2 min 0 min 316 W/m 12,9 km/h (3 Bft) 97,87 %
30.01.2022 11:30 6,7 C 11,7 C 2,8 C 82 % 1030,3 hPa 0,0 l/m 2 min 0 min 315 W/m 16,1 km/h (3 Bft) 97,87 %
30.01.2022 11:32 6,7 C 11,7 C 3,3 C 82 % 1030,3 hPa 0,0 l/m 2 min 0 min 346 W/m 19,3 km/h (3 Bft) 97,87 %
30.01.2022 11:34 6,8 C 11,7 C 3,3 C 81 % 1030,3 hPa 0,0 l/m 2 min 0 min 374 W/m 19,3 km/h (3 Bft) 97,87 %
30.01.2022 11:36 6,9 C 11,1 C 3,3 C 80 % 1030,3 hPa 0,0 l/m 2 min 0 min 359 W/m 19,3 km/h (3 Bft) 97,83 %
30.01.2022 11:38 7,0 C 9,4 C 3,9 C 80 % 1030,3 hPa 0,0 l/m 2 min 0 min 251 W/m 12,9 km/h (3 Bft) 97,87 %
30.01.2022 11:40 7,0 C 7,8 C 3,3 C 79 % 1030,3 hPa 0,0 l/m 0 min 0 min 121 W/m 29,0 km/h (5 Bft) 97,87 %
30.01.2022 11:42 6,9 C 7,2 C 3,3 C 78 % 1030,3 hPa 0,0 l/m 0 min 0 min 94 W/m 29,0 km/h (5 Bft) 97,87 %
30.01.2022 11:44 6,8 C 8,3 C 3,3 C 78 % 1030,3 hPa 0,0 l/m 2 min 0 min 193 W/m 16,1 km/h (3 Bft) 97,87 %
30.01.2022 11:46 6,9 C 9,4 C 3,3 C 79 % 1030,4 hPa 0,0 l/m 2 min 0 min 280 W/m 16,1 km/h (3 Bft) 97,87 %
30.01.2022 11:48 6,9 C 9,4 C 3,3 C 79 % 1030,3 hPa 0,0 l/m 2 min 0 min 224 W/m 25,7 km/h (4 Bft) 97,83 %
30.01.2022 11:50 7,0 C 10,0 C 3,3 C 79 % 1030,3 hPa 0,0 l/m 2 min 0 min 244 W/m 19,3 km/h (3 Bft) 95,74 %
30.01.2022 11:52 7,1 C 10,0 C 3,3 C 78 % 1030,4 hPa 0,0 l/m 2 min 0 min 217 W/m 25,7 km/h (4 Bft) 93,62 %
30.01.2022 11:54 7,1 C 9,4 C 3,3 C 78 % 1030,3 hPa 0,0 l/m 2 min 0 min 209 W/m 29,0 km/h (5 Bft) 97,87 %
30.01.2022 11:56 7,1 C 8,9 C 3,3 C 77 % 1030,3 hPa 0,0 l/m 2 min 0 min 239 W/m 22,5 km/h (4 Bft) 97,87 %
30.01.2022 11:58 7,1 C 8,3 C 3,3 C 77 % 1030,3 hPa 0,0 l/m 2 min 0 min 224 W/m 16,1 km/h (3 Bft) 97,87 %
30.01.2022 12:00 7,1 C 8,9 C 3,3 C 77 % 1030,3 hPa 0,0 l/m 0 min 0 min 187 W/m 16,1 km/h (3 Bft) 97,83 %
30.01.2022 12:02 7,1 C 8,9 C 3,3 C 77 % 1030,4 hPa 0,0 l/m 0 min 0 min 167 W/m 22,5 km/h (4 Bft) 96,43 %
30.01.2022 12:04 7,2 C 8,9 C 3,3 C 77 % 1030,3 hPa 0,0 l/m 0 min 0 min 115 W/m 16,1 km/h (3 Bft) 100,00 %
30.01.2022 12:08 7,2 C 8,9 C 3,3 C 76 % 1030,4 hPa 0,0 l/m 0 min 0 min 114 W/m 29,0 km/h (5 Bft) 98,78 %
30.01.2022 12:10 7,3 C 8,3 C 3,3 C 76 % 1030,3 hPa 0,0 l/m 0 min 0 min 143 W/m 16,1 km/h (3 Bft) 97,87 %
30.01.2022 12:12 7,2 C 8,3 C 3,3 C 76 % 1030,3 hPa 0,0 l/m 0 min 0 min 186 W/m 25,7 km/h (4 Bft) 100,00 %
30.01.2022 12:14 7,3 C 8,3 C 3,3 C 76 % 1030,3 hPa 0,0 l/m 2 min 0 min 238 W/m 22,5 km/h (4 Bft) 100,00 %
30.01.2022 12:16 7,3 C 8,9 C 3,9 C 76 % 1030,3 hPa 0,0 l/m 2 min 0 min 214 W/m 25,7 km/h (4 Bft) 97,87 %
30.01.2022 12:18 7,4 C 8,9 C 3,9 C 76 % 1030,2 hPa 0,0 l/m 0 min 0 min 199 W/m 19,3 km/h (3 Bft) 100,00 %
30.01.2022 12:20 7,4 C 8,3 C 3,9 C 76 % 1030,2 hPa 0,0 l/m 2 min 0 min 212 W/m 19,3 km/h (3 Bft) 100,00 %
30.01.2022 12:22 7,3 C 8,3 C 3,9 C 75 % 1030,2 hPa 0,0 l/m 2 min 0 min 228 W/m 19,3 km/h (3 Bft) 100,00 %
30.01.2022 12:24 7,4 C 7,8 C 3,9 C 76 % 1030,2 hPa 0,0 l/m 0 min 0 min 171 W/m 22,5 km/h (4 Bft) 97,87 %
30.01.2022 12:26 7,3 C 7,8 C 3,9 C 75 % 1030,2 hPa 0,0 l/m 0 min 0 min 142 W/m 25,7 km/h (4 Bft) 97,87 %
30.01.2022 12:28 7,3 C 7,2 C 3,3 C 75 % 1030,1 hPa 0,0 l/m 0 min 0 min 117 W/m 19,3 km/h (3 Bft) 97,87 %
30.01.2022 12:30 7,2 C 6,7 C 3,3 C 75 % 1030,2 hPa 0,0 l/m 0 min 0 min 118 W/m 22,5 km/h (4 Bft) 97,87 %
30.01.2022 12:32 7,2 C 6,7 C 3,3 C 75 % 1030,0 hPa 0,0 l/m 0 min 0 min 130 W/m 22,5 km/h (4 Bft) 97,83 %
30.01.2022 12:34 7,2 C 7,2 C 3,3 C 75 % 1030,1 hPa 0,0 l/m 0 min 0 min 140 W/m 16,1 km/h (3 Bft) 97,87 %
30.01.2022 12:36 7,2 C 7,2 C 3,3 C 76 % 1030,1 hPa 0,0 l/m 0 min 0 min 167 W/m 38,6 km/h (5 Bft) 97,87 %
30.01.2022 12:38 7,2 C 7,2 C 3,3 C 76 % 1030,1 hPa 0,0 l/m 0 min 0 min 170 W/m 25,7 km/h (4 Bft) 97,87 %
30.01.2022 12:40 7,1 C 7,2 C 3,3 C 76 % 1030,1 hPa 0,0 l/m 0 min 0 min 127 W/m 29,0 km/h (5 Bft) 97,87 %
30.01.2022 12:42 7,1 C 7,2 C 3,3 C 76 % 1030,2 hPa 0,0 l/m 0 min 0 min 122 W/m 38,6 km/h (5 Bft) 95,74 %
30.01.2022 12:44 7,1 C 7,2 C 3,3 C 76 % 1030,1 hPa 0,0 l/m 0 min 0 min 160 W/m 22,5 km/h (4 Bft) 97,83 %
30.01.2022 12:46 7,1 C 7,8 C 3,3 C 76 % 1030,1 hPa 0,0 l/m 0 min 0 min 192 W/m 19,3 km/h (3 Bft) 97,87 %
30.01.2022 12:48 7,2 C 8,3 C 3,3 C 77 % 1030,1 hPa 0,0 l/m 0 min 0 min 163 W/m 19,3 km/h (3 Bft) 97,87 %
30.01.2022 12:50 7,2 C 7,8 C 3,3 C 76 % 1030,0 hPa 0,0 l/m 0 min 0 min 133 W/m 22,5 km/h (4 Bft) 97,87 %
30.01.2022 12:52 7,2 C 7,8 C 3,3 C 76 % 1030,0 hPa 0,0 l/m 0 min 0 min 100 W/m 16,1 km/h (3 Bft) 97,87 %
30.01.2022 12:54 7,2 C 8,3 C 3,3 C 75 % 1029,9 hPa 0,0 l/m 0 min 0 min 151 W/m 29,0 km/h (5 Bft) 97,83 %
30.01.2022 12:56 7,2 C 10,6 C 3,3 C 74 % 1030,0 hPa 0,0 l/m 2 min 0 min 306 W/m 29,0 km/h (5 Bft) 97,87 %
30.01.2022 12:58 7,2 C 12,2 C 3,3 C 74 % 1029,9 hPa 0,0 l/m 2 min 0 min 383 W/m 19,3 km/h (3 Bft) 93,62 %
30.01.2022 13:00 7,3 C 12,8 C 3,3 C 74 % 1029,9 hPa 0,0 l/m 2 min 0 min 357 W/m 22,5 km/h (4 Bft) 95,74 %
30.01.2022 13:02 7,4 C 13,3 C 3,3 C 74 % 1029,8 hPa 0,0 l/m 2 min 0 min 263 W/m 22,5 km/h (4 Bft) 95,74 %
30.01.2022 13:04 7,4 C 13,3 C 3,9 C 73 % 1029,8 hPa 0,0 l/m 2 min 0 min 364 W/m 19,3 km/h (3 Bft) 97,87 %
30.01.2022 13:06 7,6 C 14,4 C 3,9 C 73 % 1029,8 hPa 0,0 l/m 2 min 0 min 389 W/m 19,3 km/h (3 Bft) 93,48 %
30.01.2022 13:08 7,7 C 12,8 C 3,9 C 73 % 1029,9 hPa 0,0 l/m 2 min 0 min 388 W/m 25,7 km/h (4 Bft) 97,87 %
30.01.2022 13:10 7,7 C 11,7 C 3,9 C 72 % 1029,8 hPa 0,0 l/m 2 min 0 min 265 W/m 22,5 km/h (4 Bft) 97,87 %
30.01.2022 13:12 7,7 C 11,7 C 3,9 C 71 % 1029,9 hPa 0,0 l/m 2 min 0 min 271 W/m 25,7 km/h (4 Bft) 95,74 %
30.01.2022 13:14 7,8 C 11,7 C 3,9 C 70 % 1029,9 hPa 0,0 l/m 2 min 0 min 348 W/m 19,3 km/h (3 Bft) 97,87 %
30.01.2022 13:16 7,7 C 9,4 C 3,3 C 70 % 1029,9 hPa 0,0 l/m 0 min 0 min 150 W/m 22,5 km/h (4 Bft) 97,87 %
30.01.2022 13:18 7,6 C 8,3 C 3,3 C 69 % 1030,0 hPa 0,0 l/m 0 min 0 min 108 W/m 25,7 km/h (4 Bft) 97,83 %
30.01.2022 13:20 7,5 C 8,3 C 3,3 C 69 % 1029,9 hPa 0,0 l/m 0 min 0 min 118 W/m 16,1 km/h (3 Bft) 97,87 %
30.01.2022 13:22 7,4 C 8,3 C 3,3 C 69 % 1030,0 hPa 0,0 l/m 0 min 0 min 126 W/m 19,3 km/h (3 Bft) 95,74 %
30.01.2022 13:24 7,4 C 7,8 C 3,3 C 69 % 1030,0 hPa 0,0 l/m 0 min 0 min 92 W/m 29,0 km/h (5 Bft) 97,87 %
30.01.2022 13:26 7,3 C 7,8 C 2,8 C 69 % 1029,9 hPa 0,0 l/m 0 min 0 min 98 W/m 22,5 km/h (4 Bft) 97,87 %
30.01.2022 13:28 7,2 C 7,8 C 2,8 C 70 % 1029,8 hPa 0,0 l/m 0 min 0 min 122 W/m 25,7 km/h (4 Bft) 97,87 %
30.01.2022 13:30 7,2 C 7,8 C 2,8 C 70 % 1029,8 hPa 0,0 l/m 0 min 0 min 155 W/m 35,4 km/h (5 Bft) 97,83 %
30.01.2022 13:32 7,2 C 10,0 C 3,3 C 70 % 1029,8 hPa 0,0 l/m 2 min 0 min 266 W/m 19,3 km/h (3 Bft) 97,87 %
30.01.2022 13:34 7,3 C 11,1 C 3,3 C 71 % 1029,8 hPa 0,0 l/m 2 min 0 min 406 W/m 25,7 km/h (4 Bft) 97,87 %
30.01.2022 13:36 7,4 C 10,0 C 3,3 C 71 % 1029,8 hPa 0,0 l/m 2 min 0 min 260 W/m 32,2 km/h (5 Bft) 97,87 %
30.01.2022 13:38 7,4 C 10,0 C 3,9 C 71 % 1029,8 hPa 0,0 l/m 0 min 0 min 179 W/m 32,2 km/h (5 Bft) 97,87 %
30.01.2022 13:40 7,6 C 11,7 C 3,9 C 71 % 1029,8 hPa 0,0 l/m 2 min 0 min 292 W/m 12,9 km/h (3 Bft) 95,74 %
30.01.2022 13:42 7,7 C 12,8 C 3,9 C 71 % 1029,7 hPa 0,0 l/m 2 min 0 min 415 W/m 25,7 km/h (4 Bft) 95,65 %
30.01.2022 13:44 7,8 C 11,1 C 3,9 C 71 % 1029,7 hPa 0,0 l/m 2 min 0 min 378 W/m 16,1 km/h (3 Bft) 100,00 %
30.01.2022 13:46 7,8 C 10,0 C 3,9 C 71 % 1029,6 hPa 0,0 l/m 2 min 0 min 208 W/m 22,5 km/h (4 Bft) 100,00 %
30.01.2022 13:48 7,8 C 8,9 C 3,9 C 70 % 1029,6 hPa 0,0 l/m 0 min 0 min 149 W/m 22,5 km/h (4 Bft) 100,00 %
30.01.2022 13:50 7,8 C 8,3 C 3,9 C 70 % 1029,6 hPa 0,0 l/m 0 min 0 min 149 W/m 19,3 km/h (3 Bft) 97,87 %
30.01.2022 13:52 7,7 C 8,3 C 3,9 C 70 % 1029,6 hPa 0,0 l/m 0 min 0 min 188 W/m 16,1 km/h (3 Bft) 100,00 %
30.01.2022 13:54 7,7 C 9,4 C 3,9 C 70 % 1029,5 hPa 0,0 l/m 2 min 0 min 360 W/m 16,1 km/h (3 Bft) 100,00 %
30.01.2022 13:56 7,7 C 8,9 C 3,9 C 70 % 1029,5 hPa 0,0 l/m 2 min 0 min 232 W/m 16,1 km/h (3 Bft) 97,87 %
30.01.2022 13:58 7,7 C 8,3 C 3,9 C 70 % 1029,5 hPa 0,0 l/m 0 min 0 min 142 W/m 9,7 km/h (2 Bft) 95,74 %
30.01.2022 14:00 7,7 C 7,8 C 3,9 C 70 % 1029,5 hPa 0,0 l/m 0 min 0 min 114 W/m 41,8 km/h (6 Bft) 100,00 %
30.01.2022 14:02 7,7 C 7,2 C 3,3 C 70 % 1029,6 hPa 0,0 l/m 0 min 0 min 110 W/m 19,3 km/h (3 Bft) 100,00 %
30.01.2022 14:04 7,6 C 7,2 C 3,3 C 70 % 1029,6 hPa 0,0 l/m 0 min 0 min 102 W/m 22,5 km/h (4 Bft) 97,87 %
30.01.2022 14:06 7,6 C 7,2 C 3,3 C 70 % 1029,6 hPa 0,0 l/m 0 min 0 min 93 W/m 22,5 km/h (4 Bft) 100,00 %
30.01.2022 14:08 7,5 C 7,2 C 3,3 C 70 % 1029,6 hPa 0,0 l/m 0 min 0 min 101 W/m 29,0 km/h (5 Bft) 100,00 %
30.01.2022 14:10 7,4 C 7,2 C 3,3 C 70 % 1029,5 hPa 0,0 l/m 0 min 0 min 112 W/m 29,0 km/h (5 Bft) 100,00 %
30.01.2022 14:12 7,4 C 7,2 C 3,3 C 70 % 1029,6 hPa 0,0 l/m 0 min 0 min 126 W/m 16,1 km/h (3 Bft) 100,00 %
30.01.2022 14:14 7,4 C 7,8 C 3,3 C 70 % 1029,5 hPa 0,0 l/m 0 min 0 min 162 W/m 22,5 km/h (4 Bft) 97,87 %
30.01.2022 14:16 7,4 C 9,4 C 3,3 C 71 % 1029,5 hPa 0,0 l/m 2 min 0 min 283 W/m 19,3 km/h (3 Bft) 100,00 %
30.01.2022 14:18 7,5 C 10,0 C 3,3 C 70 % 1029,5 hPa 0,0 l/m 2 min 0 min 357 W/m 19,3 km/h (3 Bft) 100,00 %
30.01.2022 14:20 7,6 C 10,6 C 3,9 C 70 % 1029,4 hPa 0,0 l/m 2 min 0 min 341 W/m 16,1 km/h (3 Bft) 100,00 %
30.01.2022 14:22 7,7 C 10,0 C 3,9 C 70 % 1029,4 hPa 0,0 l/m 2 min 0 min 351 W/m 35,4 km/h (5 Bft) 97,87 %
30.01.2022 14:24 7,8 C 10,6 C 3,9 C 69 % 1029,4 hPa 0,0 l/m 2 min 0 min 348 W/m 22,5 km/h (4 Bft) 100,00 %
30.01.2022 14:26 7,9 C 10,6 C 3,9 C 68 % 1029,3 hPa 0,0 l/m 2 min 0 min 381 W/m 16,1 km/h (3 Bft) 100,00 %
30.01.2022 14:28 7,9 C 10,6 C 3,9 C 68 % 1029,3 hPa 0,0 l/m 2 min 0 min 380 W/m 19,3 km/h (3 Bft) 97,83 %
30.01.2022 14:30 8,0 C 10,0 C 3,9 C 68 % 1029,3 hPa 0,0 l/m 2 min 0 min 349 W/m 25,7 km/h (4 Bft) 95,74 %
30.01.2022 14:32 8,0 C 9,4 C 3,9 C 67 % 1029,3 hPa 0,0 l/m 2 min 0 min 322 W/m 25,7 km/h (4 Bft) 97,87 %
30.01.2022 14:34 8,0 C 8,9 C 3,9 C 67 % 1029,2 hPa 0,0 l/m 0 min 0 min 132 W/m 32,2 km/h (5 Bft) 100,00 %
30.01.2022 14:36 7,9 C 9,4 C 3,3 C 68 % 1029,2 hPa 0,0 l/m 2 min 0 min 265 W/m 25,7 km/h (4 Bft) 95,74 %
30.01.2022 14:38 8,0 C 10,0 C 3,9 C 68 % 1029,2 hPa 0,0 l/m 2 min 0 min 288 W/m 19,3 km/h (3 Bft) 95,74 %
30.01.2022 14:40 8,0 C 9,4 C 3,3 C 68 % 1029,2 hPa 0,0 l/m 2 min 0 min 180 W/m 25,7 km/h (4 Bft) 97,87 %
30.01.2022 14:42 8,0 C 8,9 C 3,3 C 69 % 1029,1 hPa 0,0 l/m 0 min 0 min 125 W/m 16,1 km/h (3 Bft) 100,00 %
30.01.2022 14:44 8,0 C 8,9 C 3,3 C 69 % 1029,1 hPa 0,0 l/m 0 min 0 min 132 W/m 16,1 km/h (3 Bft) 100,00 %
30.01.2022 14:46 8,0 C 8,9 C 3,3 C 69 % 1029,1 hPa 0,0 l/m 0 min 0 min 146 W/m 22,5 km/h (4 Bft) 100,00 %
30.01.2022 14:48 8,0 C 9,4 C 3,3 C 70 % 1029,1 hPa 0,0 l/m 2 min 0 min 281 W/m 16,1 km/h (3 Bft) 95,74 %
30.01.2022 14:50 8,1 C 8,9 C 3,9 C 70 % 1029,1 hPa 0,0 l/m 2 min 0 min 232 W/m 16,1 km/h (3 Bft) 95,74 %
30.01.2022 14:52 8,0 C 9,4 C 3,9 C 69 % 1029,0 hPa 0,0 l/m 2 min 0 min 200 W/m 22,5 km/h (4 Bft) 95,65 %
30.01.2022 14:54 8,0 C 10,0 C 3,9 C 69 % 1029,0 hPa 0,0 l/m 2 min 0 min 237 W/m 19,3 km/h (3 Bft) 95,74 %
30.01.2022 14:56 8,0 C 9,4 C 3,9 C 69 % 1029,1 hPa 0,0 l/m 2 min 0 min 284 W/m 25,7 km/h (4 Bft) 95,74 %
30.01.2022 14:58 8,0 C 8,9 C 3,9 C 69 % 1029,1 hPa 0,0 l/m 2 min 0 min 208 W/m 19,3 km/h (3 Bft) 93,62 %
30.01.2022 15:00 7,9 C 8,3 C 3,9 C 69 % 1029,0 hPa 0,0 l/m 2 min 0 min 152 W/m 22,5 km/h (4 Bft) 97,87 %
30.01.2022 15:02 7,9 C 7,8 C 3,3 C 69 % 1029,0 hPa 0,0 l/m 0 min 0 min 91 W/m 22,5 km/h (4 Bft) 97,87 %
30.01.2022 15:04 7,8 C 7,8 C 3,3 C 69 % 1028,9 hPa 0,0 l/m 0 min 0 min 95 W/m 19,3 km/h (3 Bft) 97,83 %
30.01.2022 15:06 7,8 C 7,2 C 3,3 C 70 % 1029,0 hPa 0,0 l/m 0 min 0 min 95 W/m 9,7 km/h (2 Bft) 97,87 %
30.01.2022 15:08 7,7 C 7,2 C 3,3 C 70 % 1028,9 hPa 0,0 l/m 0 min 0 min 87 W/m 16,1 km/h (3 Bft) 97,87 %
30.01.2022 15:10 7,7 C 7,2 C 3,3 C 70 % 1029,0 hPa 0,0 l/m 0 min 0 min 73 W/m 12,9 km/h (3 Bft) 97,87 %
30.01.2022 15:12 7,6 C 7,2 C 3,3 C 71 % 1028,9 hPa 0,0 l/m 0 min 0 min 69 W/m 19,3 km/h (3 Bft) 97,67 %
30.01.2022 15:14 7,6 C 7,2 C 3,3 C 71 % 1028,9 hPa 0,0 l/m 0 min 0 min 76 W/m 9,7 km/h (2 Bft) 97,87 %
30.01.2022 15:16 7,6 C 7,2 C 3,3 C 71 % 1028,9 hPa 0,0 l/m 0 min 0 min 80 W/m 22,5 km/h (4 Bft) 93,48 %
30.01.2022 15:18 7,5 C 7,2 C 3,3 C 71 % 1028,8 hPa 0,0 l/m 0 min 0 min 74 W/m 19,3 km/h (3 Bft) 97,87 %
30.01.2022 15:20 7,5 C 7,2 C 3,3 C 71 % 1028,8 hPa 0,0 l/m 0 min 0 min 71 W/m 9,7 km/h (2 Bft) 100,00 %
30.01.2022 15:22 7,5 C 7,2 C 3,3 C 72 % 1028,8 hPa 0,0 l/m 0 min 0 min 81 W/m 12,9 km/h (3 Bft) 100,00 %
30.01.2022 15:24 7,4 C 7,2 C 3,3 C 72 % 1028,8 hPa 0,0 l/m 0 min 0 min 117 W/m 12,9 km/h (3 Bft) 97,87 %
30.01.2022 15:26 7,5 C 7,2 C 3,3 C 72 % 1028,8 hPa 0,0 l/m 0 min 0 min 94 W/m 12,9 km/h (3 Bft) 97,87 %
30.01.2022 15:28 7,5 C 7,2 C 3,3 C 72 % 1028,8 hPa 0,0 l/m 0 min 0 min 84 W/m 12,9 km/h (3 Bft) 97,83 %
30.01.2022 15:30 7,5 C 7,2 C 3,3 C 73 % 1028,8 hPa 0,0 l/m 0 min 0 min 84 W/m 19,3 km/h (3 Bft) 97,87 %
30.01.2022 15:32 7,5 C 7,2 C 3,3 C 73 % 1028,8 hPa 0,0 l/m 0 min 0 min 84 W/m 19,3 km/h (3 Bft) 95,74 %
30.01.2022 15:34 7,5 C 7,2 C 3,3 C 73 % 1028,8 hPa 0,0 l/m 2 min 0 min 144 W/m 12,9 km/h (3 Bft) 95,74 %
30.01.2022 15:36 7,5 C 7,2 C 3,3 C 73 % 1028,6 hPa 0,0 l/m 0 min 0 min 113 W/m 19,3 km/h (3 Bft) 95,74 %
30.01.2022 15:38 7,5 C 7,2 C 3,3 C 73 % 1028,7 hPa 0,0 l/m 0 min 0 min 78 W/m 19,3 km/h (3 Bft) 95,74 %
30.01.2022 15:40 7,5 C 7,2 C 3,3 C 73 % 1028,6 hPa 0,0 l/m 0 min 0 min 74 W/m 16,1 km/h (3 Bft) 95,65 %
30.01.2022 15:42 7,4 C 7,2 C 3,3 C 72 % 1028,6 hPa 0,0 l/m 0 min 0 min 77 W/m 16,1 km/h (3 Bft) 93,62 %
30.01.2022 15:44 7,4 C 7,2 C 3,3 C 72 % 1028,6 hPa 0,0 l/m 0 min 0 min 85 W/m 12,9 km/h (3 Bft) 95,74 %
30.01.2022 15:46 7,4 C 7,2 C 3,3 C 72 % 1028,5 hPa 0,0 l/m 2 min 0 min 117 W/m 16,1 km/h (3 Bft) 95,74 %
30.01.2022 15:48 7,4 C 7,2 C 3,3 C 71 % 1028,5 hPa 0,0 l/m 2 min 0 min 131 W/m 12,9 km/h (3 Bft) 97,87 %
30.01.2022 15:50 7,4 C 7,2 C 3,3 C 72 % 1028,5 hPa 0,0 l/m 0 min 0 min 95 W/m 12,9 km/h (3 Bft) 95,74 %
30.01.2022 15:52 7,4 C 7,2 C 3,3 C 71 % 1028,6 hPa 0,0 l/m 0 min 0 min 80 W/m 16,1 km/h (3 Bft) 95,65 %
30.01.2022 15:54 7,4 C 7,2 C 3,3 C 71 % 1028,5 hPa 0,0 l/m 0 min 0 min 74 W/m 19,3 km/h (3 Bft) 97,87 %
30.01.2022 15:56 7,4 C 7,2 C 3,3 C 71 % 1028,5 hPa 0,0 l/m 0 min 0 min 73 W/m 16,1 km/h (3 Bft) 97,87 %
30.01.2022 15:58 7,4 C 7,2 C 3,3 C 71 % 1028,5 hPa 0,0 l/m 0 min 0 min 77 W/m 12,9 km/h (3 Bft) 95,74 %
30.01.2022 16:00 7,4 C 7,2 C 3,3 C 71 % 1028,5 hPa 0,0 l/m 0 min 0 min 83 W/m 12,9 km/h (3 Bft) 97,87 %
30.01.2022 16:02 7,4 C 7,2 C 3,3 C 70 % 1028,5 hPa 0,0 l/m 0 min 0 min 79 W/m 16,1 km/h (3 Bft) 97,87 %
30.01.2022 16:04 7,5 C 7,2 C 3,3 C 70 % 1028,5 hPa 0,0 l/m 0 min 0 min 84 W/m 12,9 km/h (3 Bft) 97,83 %
30.01.2022 16:06 7,5 C 7,2 C 3,3 C 70 % 1028,5 hPa 0,0 l/m 2 min 0 min 93 W/m 9,7 km/h (2 Bft) 97,87 %
30.01.2022 16:08 7,6 C 7,2 C 3,3 C 70 % 1028,5 hPa 0,0 l/m 2 min 0 min 96 W/m 12,9 km/h (3 Bft) 97,87 %
30.01.2022 16:10 7,6 C 7,2 C 3,3 C 70 % 1028,5 hPa 0,0 l/m 2 min 0 min 91 W/m 12,9 km/h (3 Bft) 95,74 %
30.01.2022 16:12 7,6 C 7,2 C 3,3 C 70 % 1028,5 hPa 0,0 l/m 2 min 0 min 79 W/m 9,7 km/h (2 Bft) 95,74 %
30.01.2022 16:14 7,6 C 7,2 C 3,3 C 70 % 1028,5 hPa 0,0 l/m 0 min 0 min 71 W/m 22,5 km/h (4 Bft) 97,87 %
30.01.2022 16:16 7,6 C 7,2 C 3,3 C 69 % 1028,5 hPa 0,0 l/m 0 min 0 min 68 W/m 16,1 km/h (3 Bft) 95,65 %
30.01.2022 16:18 7,6 C 7,2 C 3,3 C 69 % 1028,5 hPa 0,0 l/m 0 min 0 min 67 W/m 16,1 km/h (3 Bft) 97,87 %
30.01.2022 16:20 7,6 C 7,2 C 3,3 C 69 % 1028,5 hPa 0,0 l/m 2 min 0 min 69 W/m 12,9 km/h (3 Bft) 100,00 %
30.01.2022 16:22 7,5 C 7,2 C 3,3 C 69 % 1028,5 hPa 0,0 l/m 2 min 0 min 72 W/m 22,5 km/h (4 Bft) 97,87 %
30.01.2022 16:24 7,5 C 7,2 C 3,3 C 69 % 1028,4 hPa 0,0 l/m 2 min 0 min 74 W/m 12,9 km/h (3 Bft) 97,87 %
30.01.2022 16:26 7,5 C 7,2 C 3,3 C 69 % 1028,4 hPa 0,0 l/m 2 min 0 min 74 W/m 12,9 km/h (3 Bft) 100,00 %
30.01.2022 16:28 7,5 C 7,2 C 3,3 C 69 % 1028,3 hPa 0,0 l/m 2 min 0 min 69 W/m 9,7 km/h (2 Bft) 100,00 %
30.01.2022 16:30 7,4 C 7,2 C 3,3 C 69 % 1028,3 hPa 0,0 l/m 2 min 0 min 63 W/m 12,9 km/h (3 Bft) 97,87 %
30.01.2022 16:32 7,4 C 6,7 C 3,3 C 69 % 1028,2 hPa 0,0 l/m 2 min 0 min 58 W/m 16,1 km/h (3 Bft) 97,87 %
30.01.2022 16:34 7,4 C 6,7 C 3,3 C 69 % 1028,2 hPa 0,0 l/m 0 min 0 min 51 W/m 12,9 km/h (3 Bft) 100,00 %
30.01.2022 16:36 7,3 C 6,7 C 2,8 C 69 % 1028,2 hPa 0,0 l/m 0 min 0 min 42 W/m 16,1 km/h (3 Bft) 100,00 %
30.01.2022 16:38 7,3 C 6,7 C 2,8 C 70 % 1028,2 hPa 0,0 l/m 0 min 0 min 36 W/m 12,9 km/h (3 Bft) 100,00 %
30.01.2022 16:40 7,2 C 6,7 C 2,8 C 70 % 1028,1 hPa 0,0 l/m 0 min 0 min 32 W/m 9,7 km/h (2 Bft) 100,00 %
30.01.2022 16:42 7,2 C 6,1 C 2,8 C 70 % 1028,1 hPa 0,0 l/m 0 min 0 min 30 W/m 12,9 km/h (3 Bft) 100,00 %
30.01.2022 16:44 7,1 C 6,1 C 2,8 C 70 % 1028,2 hPa 0,0 l/m 0 min 0 min 30 W/m 9,7 km/h (2 Bft) 100,00 %
30.01.2022 16:46 7,1 C 6,1 C 2,8 C 70 % 1028,2 hPa 0,0 l/m 0 min 0 min 28 W/m 12,9 km/h (3 Bft) 100,00 %
30.01.2022 16:48 7,1 C 6,1 C 2,2 C 71 % 1028,2 hPa 0,0 l/m 0 min 0 min 26 W/m 6,4 km/h (2 Bft) 97,87 %
30.01.2022 16:50 7,0 C 6,1 C 2,2 C 71 % 1028,1 hPa 0,0 l/m 0 min 0 min 26 W/m 6,4 km/h (2 Bft) 97,83 %
30.01.2022 16:52 6,9 C 6,1 C 2,2 C 71 % 1028,2 hPa 0,0 l/m 0 min 0 min 23 W/m 3,2 km/h (1 Bft) 97,87 %
30.01.2022 16:54 6,9 C 6,1 C 2,2 C 72 % 1028,1 hPa 0,0 l/m 0 min 0 min 20 W/m 6,4 km/h (2 Bft) 100,00 %
30.01.2022 16:56 6,8 C 6,1 C 2,2 C 72 % 1028,1 hPa 0,0 l/m 0 min 0 min 19 W/m 9,7 km/h (2 Bft) 100,00 %
30.01.2022 16:58 6,8 C 6,1 C 2,2 C 72 % 1028,1 hPa 0,0 l/m 0 min 0 min 17 W/m 6,4 km/h (2 Bft) 100,00 %
30.01.2022 17:00 6,7 C 6,1 C 2,2 C 73 % 1028,1 hPa 0,0 l/m 0 min 0 min 16 W/m 6,4 km/h (2 Bft) 95,74 %
30.01.2022 17:02 6,7 C 6,1 C 2,2 C 73 % 1028,1 hPa 0,0 l/m 0 min 0 min 15 W/m 6,4 km/h (2 Bft) 100,00 %
30.01.2022 17:04 6,7 C 6,1 C 2,2 C 73 % 1028,1 hPa 0,0 l/m 0 min 0 min 12 W/m 6,4 km/h (2 Bft) 100,00 %
30.01.2022 17:06 6,6 C 5,6 C 2,2 C 73 % 1028,0 hPa 0,0 l/m 0 min 0 min 12 W/m 9,7 km/h (2 Bft) 97,87 %
30.01.2022 17:08 6,6 C 5,6 C 2,2 C 73 % 1028,0 hPa 0,0 l/m 0 min 0 min 10 W/m 9,7 km/h (2 Bft) 97,87 %
30.01.2022 17:10 6,5 C 5,6 C 2,2 C 73 % 1028,0 hPa 0,0 l/m 0 min 0 min 9 W/m 6,4 km/h (2 Bft) 97,87 %
30.01.2022 17:12 6,5 C 5,6 C 2,2 C 73 % 1028,0 hPa 0,0 l/m 0 min 0 min 7 W/m 3,2 km/h (1 Bft) 97,87 %
30.01.2022 17:14 6,5 C 5,6 C 2,2 C 74 % 1028,0 hPa 0,0 l/m 0 min 0 min 7 W/m 6,4 km/h (2 Bft) 95,65 %
30.01.2022 17:16 6,4 C 5,0 C 1,7 C 74 % 1028,0 hPa 0,0 l/m 0 min 0 min 5 W/m 6,4 km/h (2 Bft) 95,74 %
30.01.2022 17:18 6,4 C 5,0 C 1,7 C 74 % 1027,9 hPa 0,0 l/m 0 min 0 min 5 W/m 6,4 km/h (2 Bft) 97,87 %
30.01.2022 17:20 6,3 C 5,0 C 1,7 C 75 % 1027,9 hPa 0,0 l/m 0 min 0 min 5 W/m 3,2 km/h (1 Bft) 95,74 %
30.01.2022 17:22 6,3 C 5,0 C 1,7 C 75 % 1027,9 hPa 0,0 l/m 0 min 0 min 5 W/m 6,4 km/h (2 Bft) 97,87 %
30.01.2022 17:24 6,2 C 5,0 C 1,7 C 75 % 1027,8 hPa 0,0 l/m 0 min 0 min 0 W/m 3,2 km/h (1 Bft) 95,74 %
30.01.2022 17:26 6,1 C 5,0 C 1,7 C 75 % 1027,8 hPa 0,0 l/m 0 min 0 min 0 W/m 6,4 km/h (2 Bft) 97,83 %
30.01.2022 17:28 6,1 C 5,0 C 1,7 C 75 % 1027,8 hPa 0,0 l/m 0 min 0 min 0 W/m 3,2 km/h (1 Bft) 95,74 %
30.01.2022 17:30 6,1 C 5,0 C 1,7 C 75 % 1027,8 hPa 0,0 l/m 0 min 0 min 0 W/m 3,2 km/h (1 Bft) 97,87 %
30.01.2022 17:32 6,0 C 5,0 C 1,7 C 76 % 1027,7 hPa 0,0 l/m 0 min 0 min 0 W/m 6,4 km/h (2 Bft) 95,74 %
30.01.2022 17:34 5,9 C 5,0 C 1,1 C 76 % 1027,7 hPa 0,0 l/m 0 min 0 min 0 W/m 3,2 km/h (1 Bft) 93,62 %
30.01.2022 17:36 5,9 C 5,0 C 1,1 C 76 % 1027,6 hPa 0,0 l/m 0 min 0 min 0 W/m 3,2 km/h (1 Bft) 95,74 %
30.01.2022 17:38 5,8 C 5,0 C 1,1 C 76 % 1027,6 hPa 0,0 l/m 0 min 0 min 0 W/m 6,4 km/h (2 Bft) 97,83 %
30.01.2022 17:40 5,8 C 4,4 C 1,1 C 76 % 1027,6 hPa 0,0 l/m 0 min 0 min 0 W/m 6,4 km/h (2 Bft) 97,87 %
30.01.2022 17:42 5,8 C 4,4 C 1,1 C 76 % 1027,5 hPa 0,0 l/m 0 min 0 min 0 W/m 3,2 km/h (1 Bft) 95,74 %
30.01.2022 17:44 5,7 C 4,4 C 1,1 C 76 % 1027,6 hPa 0,0 l/m 0 min 0 min 0 W/m 3,2 km/h (1 Bft) 97,87 %
30.01.2022 17:46 5,7 C 4,4 C 1,1 C 76 % 1027,6 hPa 0,0 l/m 0 min 0 min 0 W/m 3,2 km/h (1 Bft) 50,00 %
30.01.2022 17:48 5,6 C 4,4 C 1,1 C 76 % 1027,5 hPa 0,0 l/m 0 min 0 min 0 W/m 6,4 km/h (2 Bft) 95,65 %
30.01.2022 17:50 5,6 C 4,4 C 1,1 C 76 % 1027,4 hPa 0,0 l/m 0 min 0 min 0 W/m 3,2 km/h (1 Bft) 97,87 %
30.01.2022 17:52 5,6 C 4,4 C 1,1 C 76 % 1027,3 hPa 0,0 l/m 0 min 0 min 0 W/m 0,0 km/h (0 Bft) 97,87 %
30.01.2022 17:54 5,6 C 4,4 C 1,1 C 76 % 1027,3 hPa 0,0 l/m 0 min 0 min 0 W/m 3,2 km/h (1 Bft) 97,87 %
30.01.2022 17:56 5,5 C 4,4 C 1,1 C 76 % 1027,3 hPa 0,0 l/m 0 min 0 min 0 W/m 3,2 km/h (1 Bft) 95,74 %
30.01.2022 17:58 5,4 C 4,4 C 0,6 C 76 % 1027,2 hPa 0,0 l/m 0 min 0 min 0 W/m 3,2 km/h (1 Bft) 97,87 %
30.01.2022 18:00 5,4 C 4,4 C 0,6 C 76 % 1027,2 hPa 0,0 l/m 0 min 0 min 0 W/m 0,0 km/h (0 Bft) 97,83 %
30.01.2022 18:02 5,4 C 3,9 C 0,6 C 76 % 1027,2 hPa 0,0 l/m 0 min 0 min 0 W/m 3,2 km/h (1 Bft) 97,87 %
30.01.2022 18:04 5,3 C 3,9 C 0,6 C 76 % 1027,2 hPa 0,0 l/m 0 min 0 min 0 W/m 3,2 km/h (1 Bft) 97,87 %
30.01.2022 18:08 5,3 C 3,9 C 0,6 C 77 % 1027,1 hPa 0,0 l/m 0 min 0 min 0 W/m 3,2 km/h (1 Bft) 97,89 %
30.01.2022 18:10 5,2 C 3,9 C 0,0 C 77 % 1027,1 hPa 0,0 l/m 0 min 0 min 0 W/m 0,0 km/h (0 Bft) 100,00 %
30.01.2022 18:12 5,2 C 3,9 C 0,0 C 77 % 1027,0 hPa 0,0 l/m 0 min 0 min 0 W/m 3,2 km/h (1 Bft) 100,00 %
30.01.2022 18:14 5,2 C 3,3 C 0,0 C 77 % 1027,0 hPa 0,0 l/m 0 min 0 min 0 W/m 0,0 km/h (0 Bft) 100,00 %
30.01.2022 18:16 5,1 C 3,3 C 0,0 C 77 % 1027,0 hPa 0,0 l/m 0 min 0 min 0 W/m 3,2 km/h (1 Bft) 100,00 %
30.01.2022 18:18 5,1 C 3,3 C 0,0 C 77 % 1026,9 hPa 0,0 l/m 0 min 0 min 0 W/m 0,0 km/h (0 Bft) 100,00 %
30.01.2022 18:20 5,1 C 3,3 C 0,0 C 78 % 1027,0 hPa 0,0 l/m 0 min 0 min 0 W/m 0,0 km/h (0 Bft) 100,00 %
30.01.2022 18:22 5,0 C 3,3 C 0,0 C 78 % 1027,0 hPa 0,0 l/m 0 min 0 min 0 W/m 0,0 km/h (0 Bft) 100,00 %
30.01.2022 18:24 5,0 C 3,3 C 0,0 C 78 % 1027,0 hPa 0,0 l/m 0 min 0 min 0 W/m 6,4 km/h (2 Bft) 100,00 %
30.01.2022 18:26 4,9 C 3,3 C 0,0 C 78 % 1026,9 hPa 0,0 l/m 0 min 0 min 0 W/m 3,2 km/h (1 Bft) 100,00 %
30.01.2022 18:28 4,9 C 3,3 C 0,0 C 78 % 1027,0 hPa 0,0 l/m 0 min 0 min 0 W/m 3,2 km/h (1 Bft) 100,00 %
30.01.2022 18:30 4,9 C 3,3 C 0,0 C 78 % 1026,9 hPa 0,0 l/m 0 min 0 min 0 W/m 3,2 km/h (1 Bft) 100,00 %
30.01.2022 18:32 4,8 C 3,3 C 0,0 C 78 % 1026,9 hPa 0,0 l/m 0 min 0 min 0 W/m 0,0 km/h (0 Bft) 100,00 %
30.01.2022 18:34 4,8 C 3,3 C 0,0 C 79 % 1026,9 hPa 0,0 l/m 0 min 0 min 0 W/m 3,2 km/h (1 Bft) 97,87 %
30.01.2022 18:36 4,8 C 3,3 C 0,0 C 79 % 1026,9 hPa 0,0 l/m 0 min 0 min 0 W/m 3,2 km/h (1 Bft) 95,65 %
30.01.2022 18:38 4,7 C 3,3 C 0,0 C 79 % 1026,9 hPa 0,0 l/m 0 min 0 min 0 W/m 3,2 km/h (1 Bft) 97,87 %
30.01.2022 18:40 4,7 C 3,3 C 0,0 C 79 % 1026,8 hPa 0,0 l/m 0 min 0 min 0 W/m 3,2 km/h (1 Bft) 97,87 %
30.01.2022 18:42 4,7 C 3,3 C 0,0 C 79 % 1026,8 hPa 0,0 l/m 0 min 0 min 0 W/m 3,2 km/h (1 Bft) 97,87 %
30.01.2022 18:44 4,7 C 3,3 C 0,0 C 79 % 1026,8 hPa 0,0 l/m 0 min 0 min 0 W/m 0,0 km/h (0 Bft) 93,62 %
30.01.2022 18:46 4,7 C 3,3 C 0,0 C 79 % 1026,8 hPa 0,0 l/m 0 min 0 min 0 W/m 0,0 km/h (0 Bft) 97,87 %
30.01.2022 18:48 4,6 C 3,3 C 0,0 C 80 % 1026,8 hPa 0,0 l/m 0 min 0 min 0 W/m 3,2 km/h (1 Bft) 97,83 %
30.01.2022 18:50 4,6 C 3,3 C 0,0 C 80 % 1026,8 hPa 0,0 l/m 0 min 0 min 0 W/m 3,2 km/h (1 Bft) 95,74 %
30.01.2022 18:52 4,6 C 3,9 C 0,0 C 80 % 1026,6 hPa 0,0 l/m 0 min 0 min 0 W/m 6,4 km/h (2 Bft) 95,74 %
30.01.2022 18:54 4,6 C 3,9 C 0,0 C 80 % 1026,5 hPa 0,0 l/m 0 min 0 min 0 W/m 3,2 km/h (1 Bft) 93,62 %
30.01.2022 18:56 4,6 C 3,9 C 0,0 C 80 % 1026,6 hPa 0,0 l/m 0 min 0 min 0 W/m 6,4 km/h (2 Bft) 95,74 %
30.01.2022 18:58 4,6 C 3,9 C 0,6 C 81 % 1026,6 hPa 0,0 l/m 0 min 0 min 0 W/m 6,4 km/h (2 Bft) 95,74 %
30.01.2022 19:00 4,6 C 3,9 C 0,6 C 81 % 1026,6 hPa 0,0 l/m 0 min 0 min 0 W/m 6,4 km/h (2 Bft) 95,65 %
30.01.2022 19:02 4,6 C 3,9 C 0,6 C 81 % 1026,7 hPa 0,0 l/m 0 min 0 min 0 W/m 6,4 km/h (2 Bft) 96,00 %
30.01.2022 19:04 4,6 C 3,9 C 0,6 C 81 % 1026,7 hPa 0,0 l/m 0 min 0 min 0 W/m 3,2 km/h (1 Bft) 95,74 %
30.01.2022 19:06 4,6 C 3,9 C 0,6 C 81 % 1026,6 hPa 0,0 l/m 0 min 0 min 0 W/m 0,0 km/h (0 Bft) 95,74 %
30.01.2022 19:08 4,6 C 3,9 C 0,6 C 81 % 1026,6 hPa 0,0 l/m 0 min 0 min 0 W/m 3,2 km/h (1 Bft) 93,62 %
30.01.2022 19:10 4,6 C 3,9 C 0,6 C 81 % 1026,6 hPa 0,0 l/m 0 min 0 min 0 W/m 3,2 km/h (1 Bft) 95,65 %
30.01.2022 19:12 4,6 C 3,9 C 0,6 C 81 % 1026,5 hPa 0,0 l/m 0 min 0 min 0 W/m 3,2 km/h (1 Bft) 91,49 %
30.01.2022 19:14 4,6 C 3,9 C 0,6 C 82 % 1026,5 hPa 0,0 l/m 0 min 0 min 0 W/m 3,2 km/h (1 Bft) 95,74 %
30.01.2022 19:16 4,6 C 3,9 C 0,6 C 82 % 1026,5 hPa 0,0 l/m 0 min 0 min 0 W/m 3,2 km/h (1 Bft) 95,74 %
30.01.2022 19:18 4,5 C 3,9 C 0,6 C 82 % 1026,5 hPa 0,0 l/m 0 min 0 min 0 W/m 3,2 km/h (1 Bft) 95,74 %
30.01.2022 19:20 4,5 C 3,3 C 0,6 C 82 % 1026,4 hPa 0,0 l/m 0 min 0 min 0 W/m 3,2 km/h (1 Bft) 95,74 %
30.01.2022 19:22 4,5 C 3,9 C 0,6 C 82 % 1026,4 hPa 0,0 l/m 0 min 0 min 0 W/m 3,2 km/h (1 Bft) 97,83 %
30.01.2022 19:24 4,5 C 3,9 C 0,6 C 82 % 1026,4 hPa 0,0 l/m 0 min 0 min 0 W/m 3,2 km/h (1 Bft) 95,74 %
30.01.2022 19:26 4,5 C 3,9 C 0,6 C 82 % 1026,4 hPa 0,0 l/m 0 min 0 min 0 W/m 3,2 km/h (1 Bft) 95,74 %
30.01.2022 19:28 4,5 C 3,9 C 0,6 C 82 % 1026,4 hPa 0,0 l/m 0 min 0 min 0 W/m 0,0 km/h (0 Bft) 97,87 %
30.01.2022 19:30 4,4 C 3,3 C 0,6 C 82 % 1026,4 hPa 0,0 l/m 0 min 0 min 0 W/m 3,2 km/h (1 Bft) 97,87 %
30.01.2022 19:32 4,4 C 3,9 C 0,6 C 82 % 1026,4 hPa 0,0 l/m 0 min 0 min 0 W/m 3,2 km/h (1 Bft) 95,74 %
30.01.2022 19:34 4,4 C 3,3 C 0,6 C 82 % 1026,4 hPa 0,0 l/m 0 min 0 min 0 W/m 3,2 km/h (1 Bft) 97,83 %
30.01.2022 19:36 4,4 C 3,3 C 0,6 C 82 % 1026,3 hPa 0,0 l/m 0 min 0 min 0 W/m 0,0 km/h (0 Bft) 95,74 %
30.01.2022 19:38 4,4 C 3,3 C 0,6 C 82 % 1026,3 hPa 0,0 l/m 0 min 0 min 0 W/m 3,2 km/h (1 Bft) 97,87 %
30.01.2022 19:40 4,4 C 3,3 C 0,6 C 82 % 1026,2 hPa 0,0 l/m 0 min 0 min 0 W/m 3,2 km/h (1 Bft) 95,74 %
30.01.2022 19:42 4,4 C 3,3 C 0,6 C 82 % 1026,2 hPa 0,0 l/m 0 min 0 min 0 W/m 0,0 km/h (0 Bft) 68,75 %
30.01.2022 19:44 4,4 C 3,3 C 0,6 C 82 % 1026,2 hPa 0,0 l/m 0 min 0 min 0 W/m 0,0 km/h (0 Bft) 82,05 %
30.01.2022 19:46 4,4 C 3,3 C 0,6 C 82 % 1026,2 hPa 0,0 l/m 0 min 0 min 0 W/m 0,0 km/h (0 Bft) 95,65 %
30.01.2022 19:48 4,4 C 3,3 C 0,0 C 82 % 1026,1 hPa 0,0 l/m 0 min 0 min 0 W/m 0,0 km/h (0 Bft) 95,74 %
30.01.2022 19:50 4,4 C 3,3 C 0,0 C 82 % 1026,1 hPa 0,0 l/m 0 min 0 min 0 W/m 3,2 km/h (1 Bft) 97,87 %
30.01.2022 19:52 4,4 C 3,3 C 0,0 C 82 % 1026,1 hPa 0,0 l/m 0 min 0 min 0 W/m 3,2 km/h (1 Bft) 97,87 %
30.01.2022 19:54 4,3 C 3,3 C 0,0 C 82 % 1026,1 hPa 0,0 l/m 0 min 0 min 0 W/m 6,4 km/h (2 Bft) 95,74 %
30.01.2022 19:56 4,3 C 3,3 C 0,0 C 83 % 1026,1 hPa 0,0 l/m 0 min 0 min 0 W/m 3,2 km/h (1 Bft) 97,87 %
30.01.2022 19:58 4,3 C 3,3 C 0,0 C 83 % 1026,1 hPa 0,0 l/m 0 min 0 min 0 W/m 3,2 km/h (1 Bft) 97,83 %
30.01.2022 20:00 4,3 C 3,3 C 0,0 C 83 % 1026,1 hPa 0,0 l/m 0 min 0 min 0 W/m 3,2 km/h (1 Bft) 93,62 %
30.01.2022 20:02 4,3 C 3,3 C 0,0 C 83 % 1026,1 hPa 0,0 l/m 0 min 0 min 0 W/m 3,2 km/h (1 Bft) 100,00 %
30.01.2022 20:04 4,3 C 3,3 C 0,0 C 83 % 1026,1 hPa 0,0 l/m 0 min 0 min 0 W/m 3,2 km/h (1 Bft) 97,87 %
30.01.2022 20:06 4,3 C 3,3 C 0,0 C 83 % 1026,0 hPa 0,0 l/m 0 min 0 min 0 W/m 3,2 km/h (1 Bft) 97,87 %
30.01.2022 20:08 4,3 C 3,3 C 0,6 C 83 % 1025,9 hPa 0,0 l/m 0 min 0 min 0 W/m 6,4 km/h (2 Bft) 97,87 %
30.01.2022 20:10 4,3 C 3,3 C 0,6 C 83 % 1025,9 hPa 0,0 l/m 0 min 0 min 0 W/m 3,2 km/h (1 Bft) 100,00 %
30.01.2022 20:12 4,3 C 3,3 C 0,6 C 83 % 1025,9 hPa 0,0 l/m 0 min 0 min 0 W/m 3,2 km/h (1 Bft) 100,00 %
30.01.2022 20:14 4,3 C 3,3 C 0,6 C 83 % 1025,9 hPa 0,0 l/m 0 min 0 min 0 W/m 6,4 km/h (2 Bft) 100,00 %
30.01.2022 20:16 4,3 C 3,9 C 0,6 C 83 % 1025,9 hPa 0,0 l/m 0 min 0 min 0 W/m 3,2 km/h (1 Bft) 100,00 %
30.01.2022 20:18 4,3 C 3,9 C 0,6 C 83 % 1025,9 hPa 0,0 l/m 0 min 0 min 0 W/m 3,2 km/h (1 Bft) 100,00 %
30.01.2022 20:20 4,3 C 3,9 C 0,6 C 83 % 1025,8 hPa 0,0 l/m 0 min 0 min 0 W/m 6,4 km/h (2 Bft) 100,00 %
30.01.2022 20:22 4,3 C 3,9 C 0,6 C 83 % 1025,8 hPa 0,0 l/m 0 min 0 min 0 W/m 3,2 km/h (1 Bft) 100,00 %
30.01.2022 20:24 4,3 C 3,9 C 0,6 C 83 % 1025,7 hPa 0,0 l/m 0 min 0 min 0 W/m 3,2 km/h (1 Bft) 100,00 %
30.01.2022 20:26 4,3 C 3,9 C 0,6 C 83 % 1025,6 hPa 0,0 l/m 0 min 0 min 0 W/m 3,2 km/h (1 Bft) 100,00 %
30.01.2022 20:28 4,3 C 3,9 C 0,6 C 83 % 1025,5 hPa 0,0 l/m 0 min 0 min 0 W/m 6,4 km/h (2 Bft) 97,87 %
30.01.2022 20:30 4,3 C 3,9 C 0,6 C 83 % 1025,4 hPa 0,0 l/m 0 min 0 min 0 W/m 3,2 km/h (1 Bft) 100,00 %
30.01.2022 20:32 4,3 C 3,9 C 0,6 C 83 % 1025,5 hPa 0,0 l/m 0 min 0 min 0 W/m 3,2 km/h (1 Bft) 100,00 %
30.01.2022 20:34 4,3 C 3,9 C 0,6 C 83 % 1025,5 hPa 0,0 l/m 0 min 0 min 0 W/m 6,4 km/h (2 Bft) 100,00 %
30.01.2022 20:36 4,3 C 3,9 C 0,6 C 83 % 1025,4 hPa 0,0 l/m 0 min 0 min 0 W/m 6,4 km/h (2 Bft) 97,87 %
30.01.2022 20:38 4,3 C 3,9 C 0,6 C 83 % 1025,4 hPa 0,0 l/m 0 min 0 min 0 W/m 3,2 km/h (1 Bft) 100,00 %
30.01.2022 20:40 4,4 C 3,9 C 0,6 C 83 % 1025,3 hPa 0,0 l/m 0 min 0 min 0 W/m 3,2 km/h (1 Bft) 97,87 %
30.01.2022 20:42 4,4 C 3,9 C 0,6 C 83 % 1025,1 hPa 0,0 l/m 0 min 0 min 0 W/m 6,4 km/h (2 Bft) 95,74 %
30.01.2022 20:44 4,4 C 3,9 C 0,6 C 83 % 1025,2 hPa 0,0 l/m 0 min 0 min 0 W/m 3,2 km/h (1 Bft) 97,87 %
30.01.2022 20:46 4,4 C 3,9 C 0,6 C 83 % 1025,2 hPa 0,0 l/m 0 min 0 min 0 W/m 3,2 km/h (1 Bft) 97,87 %
30.01.2022 20:48 4,4 C 3,9 C 0,6 C 83 % 1025,1 hPa 0,0 l/m 0 min 0 min 0 W/m 3,2 km/h (1 Bft) 100,00 %
30.01.2022 20:50 4,4 C 3,9 C 0,6 C 83 % 1025,2 hPa 0,0 l/m 0 min 0 min 0 W/m 3,2 km/h (1 Bft) 97,83 %
30.01.2022 20:52 4,4 C 3,9 C 0,6 C 83 % 1025,0 hPa 0,0 l/m 0 min 0 min 0 W/m 3,2 km/h (1 Bft) 95,74 %
30.01.2022 20:54 4,4 C 3,9 C 0,6 C 83 % 1025,0 hPa 0,0 l/m 0 min 0 min 0 W/m 3,2 km/h (1 Bft) 97,87 %
30.01.2022 20:56 4,4 C 3,9 C 0,6 C 82 % 1025,0 hPa 0,0 l/m 0 min 0 min 0 W/m 6,4 km/h (2 Bft) 97,87 %
30.01.2022 20:58 4,4 C 3,9 C 0,6 C 82 % 1025,0 hPa 0,0 l/m 0 min 0 min 0 W/m 3,2 km/h (1 Bft) 97,87 %
30.01.2022 21:00 4,4 C 3,9 C 0,6 C 82 % 1024,9 hPa 0,0 l/m 0 min 0 min 0 W/m 6,4 km/h (2 Bft) 97,87 %
30.01.2022 21:02 4,4 C 3,9 C 0,6 C 82 % 1024,9 hPa 0,0 l/m 0 min 0 min 0 W/m 6,4 km/h (2 Bft) 97,83 %
30.01.2022 21:04 4,4 C 3,9 C 0,6 C 82 % 1024,9 hPa 0,0 l/m 0 min 0 min 0 W/m 6,4 km/h (2 Bft) 97,87 %
30.01.2022 21:06 4,4 C 3,9 C 0,6 C 82 % 1024,9 hPa 0,0 l/m 0 min 0 min 0 W/m 6,4 km/h (2 Bft) 95,74 %
30.01.2022 21:08 4,5 C 3,9 C 0,6 C 82 % 1024,9 hPa 0,0 l/m 0 min 0 min 0 W/m 6,4 km/h (2 Bft) 97,87 %
30.01.2022 21:10 4,5 C 3,9 C 0,6 C 82 % 1025,0 hPa 0,0 l/m 0 min 0 min 0 W/m 3,2 km/h (1 Bft) 100,00 %
30.01.2022 21:12 4,5 C 3,9 C 0,6 C 82 % 1025,0 hPa 0,0 l/m 0 min 0 min 0 W/m 6,4 km/h (2 Bft) 100,00 %
30.01.2022 21:14 4,5 C 3,9 C 0,6 C 82 % 1024,9 hPa 0,0 l/m 0 min 0 min 0 W/m 9,7 km/h (2 Bft) 100,00 %
30.01.2022 21:16 4,5 C 3,9 C 0,6 C 82 % 1024,9 hPa 0,0 l/m 0 min 0 min 0 W/m 6,4 km/h (2 Bft) 97,87 %
30.01.2022 21:18 4,6 C 3,9 C 0,6 C 82 % 1024,9 hPa 0,0 l/m 0 min 0 min 0 W/m 6,4 km/h (2 Bft) 100,00 %
30.01.2022 21:20 4,6 C 3,9 C 0,6 C 82 % 1024,8 hPa 0,0 l/m 0 min 0 min 0 W/m 6,4 km/h (2 Bft) 100,00 %
30.01.2022 21:22 4,6 C 3,9 C 1,1 C 81 % 1024,7 hPa 0,0 l/m 0 min 0 min 0 W/m 6,4 km/h (2 Bft) 97,87 %
30.01.2022 21:24 4,6 C 3,9 C 1,1 C 81 % 1024,7 hPa 0,0 l/m 0 min 0 min 0 W/m 6,4 km/h (2 Bft) 100,00 %
30.01.2022 21:26 4,6 C 3,9 C 0,6 C 82 % 1024,6 hPa 0,0 l/m 0 min 0 min 0 W/m 6,4 km/h (2 Bft) 100,00 %
30.01.2022 21:28 4,7 C 3,9 C 0,6 C 82 % 1024,6 hPa 0,0 l/m 0 min 0 min 0 W/m 12,9 km/h (3 Bft) 100,00 %
30.01.2022 21:30 4,7 C 3,9 C 1,1 C 82 % 1024,3 hPa 0,0 l/m 0 min 0 min 0 W/m 19,3 km/h (3 Bft) 100,00 %
30.01.2022 21:32 4,7 C 4,4 C 1,1 C 81 % 1024,2 hPa 0,0 l/m 0 min 0 min 0 W/m 12,9 km/h (3 Bft) 95,74 %
30.01.2022 21:34 4,7 C 4,4 C 1,1 C 81 % 1024,2 hPa 0,0 l/m 0 min 0 min 0 W/m 16,1 km/h (3 Bft) 100,00 %
30.01.2022 21:36 4,7 C 4,4 C 1,1 C 81 % 1024,1 hPa 0,0 l/m 0 min 0 min 0 W/m 12,9 km/h (3 Bft) 100,00 %
30.01.2022 21:38 4,8 C 4,4 C 1,1 C 81 % 1023,9 hPa 0,0 l/m 0 min 0 min 0 W/m 12,9 km/h (3 Bft) 95,74 %
30.01.2022 21:40 4,8 C 4,4 C 1,1 C 81 % 1024,0 hPa 0,0 l/m 0 min 0 min 0 W/m 12,9 km/h (3 Bft) 100,00 %
30.01.2022 21:42 4,8 C 4,4 C 1,1 C 81 % 1023,9 hPa 0,0 l/m 0 min 0 min 0 W/m 16,1 km/h (3 Bft) 97,87 %
30.01.2022 21:44 4,8 C 4,4 C 1,1 C 81 % 1023,8 hPa 0,0 l/m 0 min 0 min 0 W/m 12,9 km/h (3 Bft) 100,00 %
30.01.2022 21:46 4,8 C 4,4 C 1,1 C 81 % 1023,7 hPa 0,0 l/m 0 min 0 min 0 W/m 12,9 km/h (3 Bft) 100,00 %
30.01.2022 21:48 4,8 C 4,4 C 1,1 C 81 % 1023,5 hPa 0,0 l/m 0 min 0 min 0 W/m 9,7 km/h (2 Bft) 100,00 %
30.01.2022 21:50 4,8 C 4,4 C 1,1 C 81 % 1023,4 hPa 0,0 l/m 0 min 0 min 0 W/m 16,1 km/h (3 Bft) 91,49 %
30.01.2022 21:52 4,8 C 4,4 C 1,1 C 81 % 1023,3 hPa 0,0 l/m 0 min 0 min 0 W/m 6,4 km/h (2 Bft) 93,62 %
30.01.2022 21:54 4,9 C 4,4 C 1,1 C 81 % 1023,2 hPa 0,0 l/m 0 min 0 min 0 W/m 6,4 km/h (2 Bft) 95,74 %
30.01.2022 21:56 4,9 C 4,4 C 1,1 C 81 % 1023,1 hPa 0,0 l/m 0 min 0 min 0 W/m 19,3 km/h (3 Bft) 93,62 %
30.01.2022 21:58 4,9 C 4,4 C 1,1 C 81 % 1023,1 hPa 0,0 l/m 0 min 0 min 0 W/m 19,3 km/h (3 Bft) 91,49 %
30.01.2022 22:00 4,9 C 4,4 C 1,1 C 81 % 1023,0 hPa 0,0 l/m 0 min 0 min 0 W/m 9,7 km/h (2 Bft) 95,65 %
30.01.2022 22:02 4,9 C 4,4 C 1,1 C 81 % 1023,1 hPa 0,0 l/m 0 min 0 min 0 W/m 12,9 km/h (3 Bft) 95,74 %
30.01.2022 22:04 4,9 C 4,4 C 1,1 C 82 % 1023,1 hPa 0,0 l/m 0 min 0 min 0 W/m 22,5 km/h (4 Bft) 93,62 %
30.01.2022 22:06 4,9 C 4,4 C 1,1 C 82 % 1023,1 hPa 0,0 l/m 0 min 0 min 0 W/m 16,1 km/h (3 Bft) 95,74 %
30.01.2022 22:08 5,0 C 4,4 C 1,1 C 82 % 1023,0 hPa 0,0 l/m 0 min 0 min 0 W/m 12,9 km/h (3 Bft) 95,74 %
30.01.2022 22:10 5,0 C 4,4 C 1,1 C 82 % 1022,9 hPa 0,0 l/m 0 min 0 min 0 W/m 19,3 km/h (3 Bft) 95,74 %
30.01.2022 22:12 5,0 C 4,4 C 1,1 C 82 % 1022,8 hPa 0,0 l/m 0 min 0 min 0 W/m 16,1 km/h (3 Bft) 95,65 %
30.01.2022 22:14 5,0 C 4,4 C 1,1 C 82 % 1022,9 hPa 0,0 l/m 0 min 0 min 0 W/m 12,9 km/h (3 Bft) 93,62 %
30.01.2022 22:16 5,0 C 4,4 C 1,1 C 82 % 1023,0 hPa 0,0 l/m 0 min 0 min 0 W/m 22,5 km/h (4 Bft) 94,44 %
30.01.2022 22:18 5,0 C 4,4 C 1,1 C 82 % 1022,9 hPa 0,0 l/m 0 min 0 min 0 W/m 9,7 km/h (2 Bft) 95,74 %
30.01.2022 22:20 5,0 C 4,4 C 1,1 C 83 % 1022,7 hPa 0,0 l/m 0 min 0 min 0 W/m 16,1 km/h (3 Bft) 94,74 %
30.01.2022 22:22 5,0 C 4,4 C 1,1 C 83 % 1022,6 hPa 0,0 l/m 0 min 0 min 0 W/m 12,9 km/h (3 Bft) 94,74 %
30.01.2022 22:24 5,0 C 4,4 C 1,1 C 83 % 1022,6 hPa 0,0 l/m 0 min 0 min 0 W/m 22,5 km/h (4 Bft) 95,74 %
30.01.2022 22:26 5,0 C 4,4 C 1,1 C 83 % 1022,5 hPa 0,0 l/m 0 min 0 min 0 W/m 19,3 km/h (3 Bft) 94,74 %
30.01.2022 22:28 5,0 C 4,4 C 1,1 C 83 % 1022,5 hPa 0,0 l/m 0 min 0 min 0 W/m 16,1 km/h (3 Bft) 93,62 %
30.01.2022 22:30 5,0 C 4,4 C 1,1 C 83 % 1022,5 hPa 0,0 l/m 0 min 0 min 0 W/m 16,1 km/h (3 Bft) 91,49 %
30.01.2022 22:32 5,0 C 4,4 C 1,1 C 83 % 1022,6 hPa 0,0 l/m 0 min 0 min 0 W/m 12,9 km/h (3 Bft) 97,92 %
30.01.2022 22:34 5,0 C 4,4 C 1,1 C 83 % 1022,6 hPa 0,0 l/m 0 min 0 min 0 W/m 12,9 km/h (3 Bft) 95,65 %
30.01.2022 22:36 5,0 C 4,4 C 1,1 C 83 % 1022,4 hPa 0,0 l/m 0 min 0 min 0 W/m 12,9 km/h (3 Bft) 95,74 %
30.01.2022 22:38 5,0 C 4,4 C 1,1 C 83 % 1022,4 hPa 0,0 l/m 0 min 0 min 0 W/m 16,1 km/h (3 Bft) 95,74 %
30.01.2022 22:40 4,9 C 4,4 C 1,1 C 83 % 1022,3 hPa 0,0 l/m 0 min 0 min 0 W/m 12,9 km/h (3 Bft) 93,62 %
30.01.2022 22:42 4,9 C 4,4 C 1,1 C 83 % 1022,4 hPa 0,0 l/m 0 min 0 min 0 W/m 16,1 km/h (3 Bft) 97,87 %
30.01.2022 22:44 5,0 C 4,4 C 1,1 C 83 % 1022,3 hPa 0,0 l/m 0 min 0 min 0 W/m 12,9 km/h (3 Bft) 97,87 %
30.01.2022 22:46 5,0 C 4,4 C 1,1 C 83 % 1022,3 hPa 0,0 l/m 0 min 0 min 0 W/m 12,9 km/h (3 Bft) 95,65 %
30.01.2022 22:48 5,0 C 4,4 C 1,1 C 82 % 1022,3 hPa 0,0 l/m 0 min 0 min 0 W/m 9,7 km/h (2 Bft) 95,74 %
30.01.2022 22:50 5,0 C 4,4 C 1,1 C 82 % 1022,3 hPa 0,0 l/m 0 min 0 min 0 W/m 12,9 km/h (3 Bft) 95,74 %
30.01.2022 22:52 4,9 C 4,4 C 1,1 C 82 % 1022,2 hPa 0,0 l/m 0 min 0 min 0 W/m 12,9 km/h (3 Bft) 97,87 %
30.01.2022 22:54 4,9 C 4,4 C 1,1 C 82 % 1022,1 hPa 0,0 l/m 0 min 0 min 0 W/m 9,7 km/h (2 Bft) 97,87 %
30.01.2022 22:56 4,9 C 4,4 C 1,1 C 82 % 1022,2 hPa 0,0 l/m 0 min 0 min 0 W/m 9,7 km/h (2 Bft) 97,87 %
30.01.2022 22:58 4,9 C 4,4 C 1,1 C 82 % 1022,3 hPa 0,0 l/m 0 min 0 min 0 W/m 6,4 km/h (2 Bft) 97,83 %
30.01.2022 23:00 4,9 C 4,4 C 1,1 C 82 % 1022,2 hPa 0,0 l/m 0 min 0 min 0 W/m 12,9 km/h (3 Bft) 97,87 %
30.01.2022 23:02 4,9 C 4,4 C 1,1 C 82 % 1021,8 hPa 0,0 l/m 0 min 0 min 0 W/m 12,9 km/h (3 Bft) 97,87 %
30.01.2022 23:04 4,9 C 4,4 C 1,1 C 82 % 1021,8 hPa 0,0 l/m 0 min 0 min 0 W/m 6,4 km/h (2 Bft) 97,96 %
30.01.2022 23:06 4,9 C 4,4 C 1,1 C 82 % 1021,9 hPa 0,0 l/m 0 min 0 min 0 W/m 12,9 km/h (3 Bft) 97,87 %
30.01.2022 23:08 4,9 C 4,4 C 1,1 C 82 % 1021,9 hPa 0,0 l/m 0 min 0 min 0 W/m 22,5 km/h (4 Bft) 100,00 %
30.01.2022 23:10 4,9 C 4,4 C 1,1 C 82 % 1021,7 hPa 0,0 l/m 0 min 0 min 0 W/m 12,9 km/h (3 Bft) 100,00 %
30.01.2022 23:12 4,9 C 4,4 C 1,1 C 82 % 1021,6 hPa 0,0 l/m 0 min 0 min 0 W/m 6,4 km/h (2 Bft) 100,00 %
30.01.2022 23:14 4,9 C 4,4 C 1,1 C 82 % 1021,6 hPa 0,0 l/m 0 min 0 min 0 W/m 16,1 km/h (3 Bft) 100,00 %
30.01.2022 23:16 4,9 C 4,4 C 1,1 C 82 % 1021,5 hPa 0,0 l/m 0 min 0 min 0 W/m 22,5 km/h (4 Bft) 97,87 %
30.01.2022 23:18 4,9 C 4,4 C 1,1 C 82 % 1021,3 hPa 0,0 l/m 0 min 0 min 0 W/m 16,1 km/h (3 Bft) 100,00 %
30.01.2022 23:20 4,9 C 4,4 C 1,1 C 82 % 1021,2 hPa 0,0 l/m 0 min 0 min 0 W/m 12,9 km/h (3 Bft) 100,00 %
30.01.2022 23:22 4,9 C 4,4 C 1,1 C 82 % 1021,1 hPa 0,0 l/m 0 min 0 min 0 W/m 9,7 km/h (2 Bft) 97,83 %
30.01.2022 23:24 4,9 C 4,4 C 1,1 C 82 % 1021,1 hPa 0,0 l/m 0 min 0 min 0 W/m 12,9 km/h (3 Bft) 100,00 %
30.01.2022 23:26 4,9 C 4,4 C 1,1 C 82 % 1021,1 hPa 0,0 l/m 0 min 0 min 0 W/m 12,9 km/h (3 Bft) 97,87 %
30.01.2022 23:28 4,8 C 4,4 C 1,1 C 82 % 1021,1 hPa 0,0 l/m 0 min 0 min 0 W/m 12,9 km/h (3 Bft) 100,00 %
30.01.2022 23:30 4,8 C 4,4 C 1,1 C 82 % 1021,0 hPa 0,0 l/m 0 min 0 min 0 W/m 22,5 km/h (4 Bft) 100,00 %
30.01.2022 23:32 4,8 C 4,4 C 1,1 C 82 % 1021,0 hPa 0,0 l/m 0 min 0 min 0 W/m 12,9 km/h (3 Bft) 100,00 %
30.01.2022 23:34 4,8 C 4,4 C 1,1 C 82 % 1021,0 hPa 0,0 l/m 0 min 0 min 0 W/m 12,9 km/h (3 Bft) 100,00 %
30.01.2022 23:36 4,8 C 4,4 C 1,1 C 82 % 1020,9 hPa 0,0 l/m 0 min 0 min 0 W/m 19,3 km/h (3 Bft) 100,00 %
30.01.2022 23:38 4,8 C 3,9 C 1,1 C 82 % 1020,8 hPa 0,0 l/m 0 min 0 min 0 W/m 9,7 km/h (2 Bft) 100,00 %
30.01.2022 23:40 4,8 C 3,9 C 1,1 C 82 % 1020,7 hPa 0,0 l/m 0 min 0 min 0 W/m 19,3 km/h (3 Bft) 97,87 %
30.01.2022 23:42 4,8 C 3,9 C 1,1 C 82 % 1020,7 hPa 0,0 l/m 0 min 0 min 0 W/m 12,9 km/h (3 Bft) 100,00 %
30.01.2022 23:44 4,8 C 3,9 C 1,1 C 82 % 1020,6 hPa 0,0 l/m 0 min 0 min 0 W/m 16,1 km/h (3 Bft) 100,00 %
30.01.2022 23:46 4,8 C 3,9 C 1,1 C 82 % 1020,5 hPa 0,0 l/m 0 min 0 min 0 W/m 19,3 km/h (3 Bft) 97,83 %
30.01.2022 23:48 4,8 C 3,9 C 1,1 C 82 % 1020,6 hPa 0,0 l/m 0 min 0 min 0 W/m 16,1 km/h (3 Bft) 100,00 %
30.01.2022 23:50 4,8 C 3,9 C 1,1 C 82 % 1020,6 hPa 0,0 l/m 0 min 0 min 0 W/m 19,3 km/h (3 Bft) 100,00 %
30.01.2022 23:52 4,8 C 3,9 C 1,1 C 82 % 1020,6 hPa 0,0 l/m 0 min 0 min 0 W/m 12,9 km/h (3 Bft) 100,00 %
30.01.2022 23:54 4,8 C 3,9 C 1,1 C 82 % 1020,6 hPa 0,0 l/m 0 min 0 min 0 W/m 16,1 km/h (3 Bft) 100,00 %
30.01.2022 23:56 4,8 C 3,9 C 1,1 C 82 % 1020,6 hPa 0,0 l/m 0 min 0 min 0 W/m 22,5 km/h (4 Bft) 100,00 %
30.01.2022 23:58 4,8 C 3,9 C 1,1 C 82 % 1020,5 hPa 0,0 l/m 0 min 0 min 0 W/m 19,3 km/h (3 Bft) 100,00 %
_ Min-Zeit 06:56 06:26 18:10 14:32 23:46 - - - - 17:52 07:58
Minimum _ 4,1 C 3,3 C 0,0 C 67 % 1020,5 hPa - - - - 0,0 km/h (0 Bft) 41,67 %
_ Max-Zeit 14:50 13:06 00:00 05:28 10:22 00:00 09:24 00:00 13:42 14:00 00:02
Maximum _ 8,1 C 14,4 C 3,9 C 90 % 1030,4 hPa 0,0 l/m 2 min 0 min 415 W/m 41,8 km/h
N-NW (6 Bft)
100,00 %
Durchschnitt _ 5,7 C 5,5 C 1,9 C 82 % 1027,5 hPa #0,0 l/m #2:52 h #0 min. 133 W/m 13,5 km/h (3 Bft) 97,32 %
© 2022 W. Hausmann